Time,TemperatureF,DewpointF,PressureIn,WindDirection,WindDirectionDegrees,WindSpeedMPH,WindSpeedGustMPH,Humidity,HourlyPrecipIn,Conditions,Clouds,dailyrainin,SoftwareType,DateUTC
2013-09-28 00:00:00,64.6,27.0,30.21,NE,45,4.7,6.3,24,30.88,,---,0.00,VWS V14.00,2013-09-28 04:00:00,
2013-09-28 00:01:00,64.6,27.0,30.21,NE,45,3.6,4.7,24,30.88,,---,0.00,VWS V14.00,2013-09-28 04:01:00,
2013-09-28 00:02:00,64.6,27.0,30.18,ENE,68,3.6,4.3,24,30.88,,---,0.00,VWS V14.00,2013-09-28 04:02:00,
2013-09-28 00:03:00,64.6,27.0,30.18,NNE,22,3.1,6.5,24,30.88,,---,0.00,VWS V14.00,2013-09-28 04:03:00,
2013-09-28 00:05:00,64.6,27.0,30.18,NE,45,2.5,6.3,24,30.88,,---,0.00,VWS V14.00,2013-09-28 04:05:00,
2013-09-28 00:06:00,64.6,28.0,30.18,NNE,22,3.8,4.3,25,30.88,,---,0.00,VWS V14.00,2013-09-28 04:06:00,
2013-09-28 00:09:00,64.4,27.8,30.18,NNE,22,6.0,6.0,25,30.88,,---,0.00,VWS V14.00,2013-09-28 04:09:00,
2013-09-28 00:10:00,64.4,27.8,30.18,NE,45,3.4,6.0,25,30.88,,---,0.00,VWS V14.00,2013-09-28 04:10:00,
2013-09-28 00:14:00,64.4,27.8,30.18,NNE,22,3.6,4.9,25,30.88,,---,0.00,VWS V14.00,2013-09-28 04:14:00,
2013-09-28 00:15:00,64.4,27.8,30.18,NNE,22,6.3,6.3,25,30.88,,---,0.00,VWS V14.00,2013-09-28 04:15:00,
2013-09-28 00:17:00,64.4,27.8,30.21,NNE,22,2.7,4.5,25,30.88,,---,0.00,VWS V14.00,2013-09-28 04:17:00,
2013-09-28 00:23:00,64.4,27.8,30.21,NNE,22,3.4,4.7,25,30.88,,---,0.00,VWS V14.00,2013-09-28 04:23:00,
2013-09-28 00:24:00,64.4,27.8,30.21,NE,45,3.4,3.4,25,30.88,,---,0.00,VWS V14.00,2013-09-28 04:24:00,
2013-09-28 00:26:00,64.4,27.8,30.21,NE,45,3.1,4.3,25,30.88,,---,0.00,VWS V14.00,2013-09-28 04:26:00,
2013-09-28 00:28:00,64.4,27.8,30.21,NE,45,2.7,5.4,25,30.88,,---,0.00,VWS V14.00,2013-09-28 04:28:00,
2013-09-28 00:29:00,64.4,27.8,30.21,NE,45,3.8,3.8,25,30.88,,---,0.00,VWS V14.00,2013-09-28 04:29:00,
2013-09-28 00:31:00,64.4,27.8,30.21,NE,45,3.6,4.0,25,30.88,,---,0.00,VWS V14.00,2013-09-28 04:31:00,
2013-09-28 00:33:00,64.4,27.8,30.21,NE,45,3.8,4.0,25,30.88,,---,0.00,VWS V14.00,2013-09-28 04:33:00,
2013-09-28 00:34:00,64.4,27.8,30.21,NE,45,2.9,3.8,25,30.88,,---,0.00,VWS V14.00,2013-09-28 04:34:00,
2013-09-28 00:36:00,64.4,27.8,30.21,NNE,22,3.8,6.5,25,30.88,,---,0.00,VWS V14.00,2013-09-28 04:36:00,
2013-09-28 00:38:00,64.4,27.8,30.21,ENE,68,6.0,7.6,25,30.88,,---,0.00,VWS V14.00,2013-09-28 04:38:00,
2013-09-28 00:39:00,64.4,27.8,30.21,NNE,22,3.4,6.0,25,30.88,,---,0.00,VWS V14.00,2013-09-28 04:39:00,
2013-09-28 00:40:00,64.4,27.8,30.21,NE,45,2.9,3.6,25,30.88,,---,0.00,VWS V14.00,2013-09-28 04:40:00,
2013-09-28 00:41:00,64.4,27.8,30.21,NNE,22,2.5,4.3,25,30.88,,---,0.00,VWS V14.00,2013-09-28 04:41:00,
2013-09-28 00:43:00,64.4,27.8,30.21,NNE,22,3.8,5.4,25,30.88,,---,0.00,VWS V14.00,2013-09-28 04:43:00,
2013-09-28 00:44:00,64.4,27.8,30.21,NE,45,4.3,4.3,25,30.88,,---,0.00,VWS V14.00,2013-09-28 04:44:00,
2013-09-28 00:47:00,64.4,27.8,30.18,NNE,22,2.0,3.4,25,30.88,,---,0.00,VWS V14.00,2013-09-28 04:47:00,
2013-09-28 00:48:00,64.4,27.8,30.18,NE,45,3.4,3.6,25,30.88,,---,0.00,VWS V14.00,2013-09-28 04:48:00,
2013-09-28 00:51:00,64.4,27.8,30.18,NE,45,4.0,7.6,25,30.88,,---,0.00,VWS V14.00,2013-09-28 04:51:00,
2013-09-28 00:53:00,64.4,27.8,30.18,NE,45,5.4,7.4,25,30.88,,---,0.00,VWS V14.00,2013-09-28 04:53:00,
2013-09-28 00:54:00,64.4,27.8,30.18,NNE,22,5.8,5.8,25,30.88,,---,0.00,VWS V14.00,2013-09-28 04:54:00,
2013-09-28 00:58:00,64.4,27.8,30.18,NE,45,2.0,4.0,25,30.88,,---,0.00,VWS V14.00,2013-09-28 04:58:00,
2013-09-28 01:00:00,64.4,27.8,30.18,NE,45,3.1,5.4,25,30.88,,---,0.00,VWS V14.00,2013-09-28 05:00:00,
2013-09-28 01:01:00,64.4,27.8,30.18,NNE,22,3.1,3.1,25,30.88,,---,0.00,VWS V14.00,2013-09-28 05:01:00,
2013-09-28 01:03:00,64.4,27.8,30.21,NE,45,2.0,4.7,25,30.88,,---,0.00,VWS V14.00,2013-09-28 05:03:00,
2013-09-28 01:05:00,64.4,27.8,30.21,NE,45,3.4,5.4,25,30.88,,---,0.00,VWS V14.00,2013-09-28 05:05:00,
2013-09-28 01:08:00,64.4,27.8,30.21,NNE,22,5.8,7.4,25,30.88,,---,0.00,VWS V14.00,2013-09-28 05:08:00,
2013-09-28 01:10:00,64.4,28.8,30.21,NE,45,5.6,8.5,26,30.88,,---,0.00,VWS V14.00,2013-09-28 05:10:00,
2013-09-28 01:13:00,64.6,29.0,30.21,ENE,68,5.6,6.3,26,30.88,,---,0.00,VWS V14.00,2013-09-28 05:13:00,
2013-09-28 01:14:00,64.6,29.0,30.21,ENE,68,4.3,7.4,26,30.88,,---,0.00,VWS V14.00,2013-09-28 05:14:00,
2013-09-28 01:15:00,64.6,29.0,30.21,NE,45,5.8,5.8,26,30.88,,---,0.00,VWS V14.00,2013-09-28 05:15:00,
2013-09-28 01:16:00,64.6,28.0,30.21,ENE,68,9.6,9.6,25,30.88,,---,0.00,VWS V14.00,2013-09-28 05:16:00,
2013-09-28 01:18:00,64.6,29.0,30.21,NNE,22,2.9,6.0,26,30.88,,---,0.00,VWS V14.00,2013-09-28 05:18:00,
2013-09-28 01:21:00,64.6,29.0,30.21,NE,45,2.7,5.8,26,30.88,,---,0.00,VWS V14.00,2013-09-28 05:21:00,
2013-09-28 01:22:00,64.6,29.0,30.21,ENE,68,4.0,6.3,26,30.88,,---,0.00,VWS V14.00,2013-09-28 05:22:00,
2013-09-28 01:23:00,64.6,29.0,30.21,NNE,22,7.6,7.6,26,30.88,,---,0.00,VWS V14.00,2013-09-28 05:23:00,
2013-09-28 01:24:00,64.6,29.0,30.21,ENE,68,6.5,7.6,26,30.88,,---,0.00,VWS V14.00,2013-09-28 05:24:00,
2013-09-28 01:27:00,64.6,28.0,30.21,NE,45,6.0,8.7,25,30.88,,---,0.00,VWS V14.00,2013-09-28 05:27:00,
2013-09-28 01:28:00,64.6,28.0,30.21,NNE,22,4.3,6.0,25,30.88,,---,0.00,VWS V14.00,2013-09-28 05:28:00,
2013-09-28 01:32:00,64.6,29.0,30.21,ENE,68,4.9,5.4,26,30.88,,---,0.00,VWS V14.00,2013-09-28 05:32:00,
2013-09-28 01:34:00,64.6,29.0,30.21,NNE,22,7.2,10.1,26,30.88,,---,0.00,VWS V14.00,2013-09-28 05:34:00,
2013-09-28 01:35:00,64.6,29.0,30.21,NE,45,6.5,8.1,26,30.88,,---,0.00,VWS V14.00,2013-09-28 05:35:00,
2013-09-28 01:37:00,64.6,29.0,30.21,ENE,68,6.3,8.1,26,30.88,,---,0.00,VWS V14.00,2013-09-28 05:37:00,
2013-09-28 01:39:00,64.6,29.0,30.21,NNE,22,4.9,4.9,26,30.88,,---,0.00,VWS V14.00,2013-09-28 05:39:00,
2013-09-28 01:41:00,64.6,29.0,30.21,NNE,22,6.5,9.6,26,30.88,,---,0.00,VWS V14.00,2013-09-28 05:41:00,
2013-09-28 01:42:00,64.6,29.0,30.21,NE,45,5.8,8.1,26,30.88,,---,0.00,VWS V14.00,2013-09-28 05:42:00,
2013-09-28 01:44:00,64.8,29.1,30.21,ENE,68,5.8,5.8,26,30.88,,---,0.00,VWS V14.00,2013-09-28 05:44:00,
2013-09-28 01:46:00,64.8,29.1,30.21,NNE,22,4.7,8.7,26,30.88,,---,0.00,VWS V14.00,2013-09-28 05:46:00,
2013-09-28 01:48:00,64.8,30.0,30.21,ENE,68,5.8,5.8,27,30.88,,---,0.00,VWS V14.00,2013-09-28 05:48:00,
2013-09-28 01:49:00,64.8,30.0,30.21,NNE,22,8.5,10.3,27,30.88,,---,0.00,VWS V14.00,2013-09-28 05:49:00,
2013-09-28 01:50:00,64.8,30.0,30.21,NNE,22,5.4,8.5,27,30.88,,---,0.00,VWS V14.00,2013-09-28 05:50:00,
2013-09-28 01:51:00,64.8,30.0,30.21,NE,45,8.7,8.7,27,30.88,,---,0.00,VWS V14.00,2013-09-28 05:51:00,
2013-09-28 01:52:00,64.8,30.0,30.21,ENE,68,5.4,9.4,27,30.88,,---,0.00,VWS V14.00,2013-09-28 05:52:00,
2013-09-28 01:54:00,64.8,30.0,30.21,ENE,68,4.9,7.8,27,30.88,,---,0.00,VWS V14.00,2013-09-28 05:54:00,
2013-09-28 01:55:00,64.8,30.0,30.21,NNE,22,7.2,7.2,27,30.88,,---,0.00,VWS V14.00,2013-09-28 05:55:00,
2013-09-28 01:57:00,64.8,30.0,30.21,NE,45,5.8,10.3,27,30.88,,---,0.00,VWS V14.00,2013-09-28 05:57:00,
2013-09-28 01:59:00,64.8,30.0,30.21,NNE,22,7.4,10.1,27,30.88,,---,0.00,VWS V14.00,2013-09-28 05:59:00,
2013-09-28 02:01:00,64.8,30.0,30.21,NE,45,8.1,8.1,27,30.88,,---,0.00,VWS V14.00,2013-09-28 06:01:00,
2013-09-28 02:02:00,64.8,30.0,30.24,ENE,68,8.5,11.0,27,30.88,,---,0.00,VWS V14.00,2013-09-28 06:02:00,
2013-09-28 02:03:00,64.8,30.0,30.24,NE,45,3.4,8.5,27,30.88,,---,0.00,VWS V14.00,2013-09-28 06:03:00,
2013-09-28 02:05:00,64.8,30.0,30.24,NE,45,6.3,7.2,27,30.88,,---,0.00,VWS V14.00,2013-09-28 06:05:00,
2013-09-28 02:06:00,64.8,30.0,30.24,NE,45,2.9,6.3,27,30.88,,---,0.00,VWS V14.00,2013-09-28 06:06:00,
2013-09-28 02:07:00,64.8,30.0,30.24,NNE,22,3.8,4.9,27,30.88,,---,0.00,VWS V14.00,2013-09-28 06:07:00,
2013-09-28 02:08:00,64.8,30.0,30.24,ENE,68,3.4,4.0,27,30.88,,---,0.00,VWS V14.00,2013-09-28 06:08:00,
2013-09-28 02:11:00,64.8,30.0,30.24,NNE,22,5.8,5.8,27,30.88,,---,0.00,VWS V14.00,2013-09-28 06:11:00,
2013-09-28 02:12:00,64.8,30.0,30.24,ENE,68,7.6,7.6,27,30.88,,---,0.00,VWS V14.00,2013-09-28 06:12:00,
2013-09-28 02:14:00,64.8,30.0,30.24,ENE,68,4.3,4.9,27,30.88,,---,0.00,VWS V14.00,2013-09-28 06:14:00,
2013-09-28 02:15:00,64.8,30.0,30.24,ENE,68,6.5,8.5,27,30.88,,---,0.00,VWS V14.00,2013-09-28 06:15:00,
2013-09-28 02:16:00,64.8,30.0,30.24,NE,45,6.3,6.5,27,30.88,,---,0.00,VWS V14.00,2013-09-28 06:16:00,
2013-09-28 02:17:00,64.8,30.0,30.21,NNE,22,9.8,9.8,27,30.88,,---,0.00,VWS V14.00,2013-09-28 06:17:00,
2013-09-28 02:19:00,64.8,30.0,30.21,ENE,68,8.7,8.7,27,30.88,,---,0.00,VWS V14.00,2013-09-28 06:19:00,
2013-09-28 02:22:00,64.8,29.1,30.21,ENE,68,6.3,7.4,26,30.88,,---,0.00,VWS V14.00,2013-09-28 06:22:00,
2013-09-28 02:24:00,64.8,30.0,30.21,NE,45,5.4,5.8,27,30.88,,---,0.00,VWS V14.00,2013-09-28 06:24:00,
2013-09-28 02:25:00,64.8,30.0,30.21,NE,45,6.0,6.0,27,30.88,,---,0.00,VWS V14.00,2013-09-28 06:25:00,
2013-09-28 02:28:00,64.8,30.0,30.21,ENE,68,4.0,8.1,27,30.88,,---,0.00,VWS V14.00,2013-09-28 06:28:00,
2013-09-28 02:30:00,64.8,30.0,30.21,ENE,68,5.6,8.5,27,30.88,,---,0.00,VWS V14.00,2013-09-28 06:30:00,
2013-09-28 02:31:00,64.8,30.0,30.21,NE,45,6.3,6.3,27,30.88,,---,0.00,VWS V14.00,2013-09-28 06:31:00,
2013-09-28 02:33:00,64.8,30.0,30.21,NE,45,7.2,13.0,27,30.88,,---,0.00,VWS V14.00,2013-09-28 06:33:00,
2013-09-28 02:35:00,64.8,30.0,30.21,ENE,68,5.8,6.3,27,30.88,,---,0.00,VWS V14.00,2013-09-28 06:35:00,
2013-09-28 02:36:00,64.8,30.0,30.21,ENE,68,8.5,10.3,27,30.88,,---,0.00,VWS V14.00,2013-09-28 06:36:00,
2013-09-28 02:37:00,64.8,30.0,30.21,ENE,68,5.8,8.5,27,30.88,,---,0.00,VWS V14.00,2013-09-28 06:37:00,
2013-09-28 02:41:00,64.8,30.0,30.21,NE,45,5.6,6.5,27,30.88,,---,0.00,VWS V14.00,2013-09-28 06:41:00,
2013-09-28 02:43:00,64.8,30.0,30.21,NE,45,5.4,7.8,27,30.88,,---,0.00,VWS V14.00,2013-09-28 06:43:00,
2013-09-28 02:44:00,64.6,29.9,30.21,NE,45,5.4,7.4,27,30.88,,---,0.00,VWS V14.00,2013-09-28 06:44:00,
2013-09-28 02:47:00,64.6,29.9,30.21,NNE,22,4.7,5.4,27,30.88,,---,0.00,VWS V14.00,2013-09-28 06:47:00,
2013-09-28 02:49:00,64.6,29.9,30.21,NE,45,5.8,10.1,27,30.88,,---,0.00,VWS V14.00,2013-09-28 06:49:00,
2013-09-28 02:51:00,64.6,29.9,30.21,NE,45,4.9,10.5,27,30.88,,---,0.00,VWS V14.00,2013-09-28 06:51:00,
2013-09-28 02:52:00,64.6,29.9,30.21,ENE,68,7.4,7.4,27,30.88,,---,0.00,VWS V14.00,2013-09-28 06:52:00,
2013-09-28 02:53:00,64.8,30.0,30.21,NE,45,3.4,7.6,27,30.88,,---,0.00,VWS V14.00,2013-09-28 06:53:00,
2013-09-28 02:54:00,64.8,30.0,30.21,NE,45,2.9,3.8,27,30.88,,---,0.00,VWS V14.00,2013-09-28 06:54:00,
2013-09-28 02:57:00,64.6,29.9,30.21,NE,45,5.6,6.5,27,30.88,,---,0.00,VWS V14.00,2013-09-28 06:57:00,
2013-09-28 02:58:00,64.6,29.9,30.21,ENE,68,4.3,5.6,27,30.88,,---,0.00,VWS V14.00,2013-09-28 06:58:00,
2013-09-28 02:59:00,64.6,29.9,30.21,ENE,68,3.8,4.9,27,30.88,,---,0.00,VWS V14.00,2013-09-28 06:59:00,
2013-09-28 03:00:00,64.6,29.9,30.21,ENE,68,4.3,8.5,27,30.88,,---,0.00,VWS V14.00,2013-09-28 07:00:00,
2013-09-28 03:05:00,64.6,29.9,30.21,NE,45,7.6,8.1,27,30.88,,---,0.00,VWS V14.00,2013-09-28 07:05:00,
2013-09-28 03:08:00,64.6,29.9,30.21,ENE,68,5.8,8.1,27,30.88,,---,0.00,VWS V14.00,2013-09-28 07:08:00,
2013-09-28 03:09:00,64.6,29.9,30.21,ENE,68,6.3,6.5,27,30.88,,---,0.00,VWS V14.00,2013-09-28 07:09:00,
2013-09-28 03:12:00,64.6,29.9,30.21,NE,45,6.9,6.9,27,30.88,,---,0.00,VWS V14.00,2013-09-28 07:12:00,
2013-09-28 03:14:00,64.6,29.9,30.21,NE,45,6.3,8.5,27,30.88,,---,0.00,VWS V14.00,2013-09-28 07:14:00,
2013-09-28 03:15:00,64.6,30.8,30.21,NE,45,8.7,10.1,28,30.88,,---,0.00,VWS V14.00,2013-09-28 07:15:00,
2013-09-28 03:16:00,64.6,30.8,30.21,NE,45,10.7,10.7,28,30.88,,---,0.00,VWS V14.00,2013-09-28 07:16:00,
2013-09-28 03:17:00,64.6,30.8,30.18,ENE,68,7.6,10.7,28,30.88,,---,0.00,VWS V14.00,2013-09-28 07:17:00,
2013-09-28 03:19:00,64.6,30.8,30.18,NE,45,4.9,6.3,28,30.88,,---,0.00,VWS V14.00,2013-09-28 07:19:00,
2013-09-28 03:20:00,64.6,30.8,30.18,ENE,68,7.6,7.6,28,30.88,,---,0.00,VWS V14.00,2013-09-28 07:20:00,
2013-09-28 03:22:00,64.6,30.8,30.18,NE,45,7.8,10.5,28,30.88,,---,0.00,VWS V14.00,2013-09-28 07:22:00,
2013-09-28 03:23:00,64.6,30.8,30.18,ENE,68,10.1,10.1,28,30.88,,---,0.00,VWS V14.00,2013-09-28 07:23:00,
2013-09-28 03:26:00,64.6,30.8,30.18,NE,45,6.0,7.6,28,30.88,,---,0.00,VWS V14.00,2013-09-28 07:26:00,
2013-09-28 03:27:00,64.6,30.8,30.18,ENE,68,6.3,6.3,28,30.88,,---,0.00,VWS V14.00,2013-09-28 07:27:00,
2013-09-28 03:29:00,64.6,31.6,30.18,NE,45,3.4,7.8,29,30.88,,---,0.00,VWS V14.00,2013-09-28 07:29:00,
2013-09-28 03:30:00,64.6,31.6,30.18,NE,45,7.4,7.4,29,30.88,,---,0.00,VWS V14.00,2013-09-28 07:30:00,
2013-09-28 03:31:00,64.6,31.6,30.18,ENE,68,8.1,8.1,29,30.88,,---,0.00,VWS V14.00,2013-09-28 07:31:00,
2013-09-28 03:35:00,64.6,32.5,30.21,ESE,112,7.6,11.0,30,30.88,,---,0.00,VWS V14.00,2013-09-28 07:35:00,
2013-09-28 03:37:00,64.4,31.5,30.21,ENE,68,8.1,8.1,29,30.88,,---,0.00,VWS V14.00,2013-09-28 07:37:00,
2013-09-28 03:38:00,64.4,31.5,30.21,NE,45,2.9,8.1,29,30.88,,---,0.00,VWS V14.00,2013-09-28 07:38:00,
2013-09-28 03:41:00,64.2,31.3,30.21,ENE,68,4.0,7.8,29,30.88,,---,0.00,VWS V14.00,2013-09-28 07:41:00,
2013-09-28 03:44:00,64.2,31.3,30.21,NE,45,2.9,6.0,29,30.88,,---,0.00,VWS V14.00,2013-09-28 07:44:00,
2013-09-28 03:46:00,64.2,31.3,30.21,ENE,68,5.6,5.6,29,30.88,,---,0.00,VWS V14.00,2013-09-28 07:46:00,
2013-09-28 03:47:00,64.0,31.2,30.21,East,90,4.7,5.6,29,30.88,,---,0.00,VWS V14.00,2013-09-28 07:47:00,
2013-09-28 03:49:00,64.0,31.2,30.21,ESE,112,3.8,5.6,29,30.88,,---,0.00,VWS V14.00,2013-09-28 07:49:00,
2013-09-28 03:52:00,64.0,31.2,30.21,ESE,112,5.4,5.4,29,30.88,,---,0.00,VWS V14.00,2013-09-28 07:52:00,
2013-09-28 03:53:00,63.9,31.0,30.21,ESE,112,3.1,5.4,29,30.88,,---,0.00,VWS V14.00,2013-09-28 07:53:00,
2013-09-28 03:54:00,63.9,31.0,30.21,ENE,68,4.9,8.5,29,30.88,,---,0.00,VWS V14.00,2013-09-28 07:54:00,
2013-09-28 03:56:00,63.9,31.0,30.21,NE,45,5.8,5.8,29,30.88,,---,0.00,VWS V14.00,2013-09-28 07:56:00,
2013-09-28 03:57:00,63.9,31.0,30.21,SE,135,3.6,5.8,29,30.88,,---,0.00,VWS V14.00,2013-09-28 07:57:00,
2013-09-28 03:59:00,63.9,31.0,30.21,NNE,22,3.6,7.8,29,30.88,,---,0.00,VWS V14.00,2013-09-28 07:59:00,
2013-09-28 04:01:00,63.9,31.0,30.21,ENE,68,5.4,6.3,29,30.88,,---,0.00,VWS V14.00,2013-09-28 08:01:00,
2013-09-28 04:03:00,63.9,30.1,30.21,ENE,68,3.6,5.8,28,30.88,,---,0.00,VWS V14.00,2013-09-28 08:03:00,
2013-09-28 04:04:00,63.9,30.1,30.21,NE,45,3.6,3.6,28,30.88,,---,0.00,VWS V14.00,2013-09-28 08:04:00,
2013-09-28 04:05:00,63.9,30.1,30.21,East,90,2.9,4.3,28,30.88,,---,0.00,VWS V14.00,2013-09-28 08:05:00,
2013-09-28 04:07:00,63.9,30.1,30.21,ENE,68,5.6,5.6,28,30.88,,---,0.00,VWS V14.00,2013-09-28 08:07:00,
2013-09-28 04:09:00,63.9,30.1,30.21,ENE,68,6.0,6.0,28,30.88,,---,0.00,VWS V14.00,2013-09-28 08:09:00,
2013-09-28 04:10:00,63.9,30.1,30.21,NE,45,3.8,6.0,28,30.88,,---,0.00,VWS V14.00,2013-09-28 08:10:00,
2013-09-28 04:13:00,63.9,31.0,30.21,ENE,68,6.5,6.5,29,30.88,,---,0.00,VWS V14.00,2013-09-28 08:13:00,
2013-09-28 04:14:00,63.9,30.1,30.21,ENE,68,2.5,6.5,28,30.88,,---,0.00,VWS V14.00,2013-09-28 08:14:00,
2013-09-28 04:16:00,63.9,31.0,30.21,SSW,202,5.4,5.4,29,30.88,,---,0.00,VWS V14.00,2013-09-28 08:16:00,
2013-09-28 04:18:00,63.9,31.0,30.21,East,90,1.6,4.9,29,30.88,,---,0.00,VWS V14.00,2013-09-28 08:18:00,
2013-09-28 04:21:00,63.9,31.0,30.21,SE,135,2.5,4.5,29,30.88,,---,0.00,VWS V14.00,2013-09-28 08:21:00,
2013-09-28 04:23:00,63.9,31.0,30.21,NE,45,3.4,4.9,29,30.88,,---,0.00,VWS V14.00,2013-09-28 08:23:00,
2013-09-28 04:24:00,64.0,31.2,30.21,NE,45,4.0,6.5,29,30.88,,---,0.00,VWS V14.00,2013-09-28 08:24:00,
2013-09-28 04:25:00,64.0,31.2,30.21,NE,45,3.4,4.0,29,30.88,,---,0.00,VWS V14.00,2013-09-28 08:25:00,
2013-09-28 04:27:00,64.0,31.2,30.21,NE,45,3.6,5.8,29,30.88,,---,0.00,VWS V14.00,2013-09-28 08:27:00,
2013-09-28 04:29:00,64.0,31.2,30.21,NE,45,6.0,6.0,29,30.88,,---,0.00,VWS V14.00,2013-09-28 08:29:00,
2013-09-28 04:30:00,64.2,32.2,30.21,ENE,68,3.1,7.4,30,30.88,,---,0.00,VWS V14.00,2013-09-28 08:30:00,
2013-09-28 04:32:00,64.2,32.2,30.21,ENE,68,4.5,5.6,30,30.88,,---,0.00,VWS V14.00,2013-09-28 08:32:00,
2013-09-28 04:33:00,64.2,32.2,30.21,NE,45,5.8,7.4,30,30.88,,---,0.00,VWS V14.00,2013-09-28 08:33:00,
2013-09-28 04:36:00,64.2,32.2,30.21,NE,45,6.0,8.7,30,30.88,,---,0.00,VWS V14.00,2013-09-28 08:36:00,
2013-09-28 04:38:00,64.2,32.2,30.21,ENE,68,5.6,6.0,30,30.88,,---,0.00,VWS V14.00,2013-09-28 08:38:00,
2013-09-28 04:40:00,64.2,32.2,30.21,ENE,68,4.0,4.9,30,30.88,,---,0.00,VWS V14.00,2013-09-28 08:40:00,
2013-09-28 04:41:00,64.2,32.2,30.21,NNE,22,7.2,7.6,30,30.88,,---,0.00,VWS V14.00,2013-09-28 08:41:00,
2013-09-28 04:42:00,64.2,32.2,30.21,ENE,68,5.4,7.4,30,30.88,,---,0.00,VWS V14.00,2013-09-28 08:42:00,
2013-09-28 04:45:00,64.2,32.2,30.21,NE,45,4.7,5.4,30,30.88,,---,0.00,VWS V14.00,2013-09-28 08:45:00,
2013-09-28 04:47:00,64.2,32.2,30.18,NE,45,5.8,6.5,30,30.88,,---,0.00,VWS V14.00,2013-09-28 08:47:00,
2013-09-28 04:50:00,64.2,32.2,30.18,NE,45,6.5,7.8,30,30.88,,---,0.00,VWS V14.00,2013-09-28 08:50:00,
2013-09-28 04:51:00,64.2,32.2,30.18,NE,45,5.6,6.5,30,30.88,,---,0.00,VWS V14.00,2013-09-28 08:51:00,
2013-09-28 04:52:00,64.2,31.3,30.18,ENE,68,7.8,8.7,29,30.88,,---,0.00,VWS V14.00,2013-09-28 08:52:00,
2013-09-28 04:53:00,64.0,31.2,30.18,ENE,68,3.4,8.7,29,30.88,,---,0.00,VWS V14.00,2013-09-28 08:53:00,
2013-09-28 04:55:00,63.9,30.1,30.18,NE,45,7.6,10.1,28,30.88,,---,0.00,VWS V14.00,2013-09-28 08:55:00,
2013-09-28 04:57:00,63.9,30.1,30.18,NE,45,5.4,7.4,28,30.88,,---,0.00,VWS V14.00,2013-09-28 08:57:00,
2013-09-28 05:00:00,63.9,30.1,30.18,NNE,22,3.6,4.3,28,30.88,,---,0.00,VWS V14.00,2013-09-28 09:00:00,
2013-09-28 05:02:00,63.7,30.0,30.24,NE,45,6.3,7.8,28,30.88,,---,0.00,VWS V14.00,2013-09-28 09:02:00,
2013-09-28 05:05:00,63.5,29.8,30.24,ENE,68,2.0,3.8,28,30.88,,---,0.00,VWS V14.00,2013-09-28 09:05:00,
2013-09-28 05:06:00,63.5,29.8,30.24,NE,45,4.9,10.1,28,30.88,,---,0.00,VWS V14.00,2013-09-28 09:06:00,
2013-09-28 05:07:00,63.5,29.8,30.24,North,0,5.8,5.8,28,30.88,,---,0.00,VWS V14.00,2013-09-28 09:07:00,
2013-09-28 05:11:00,63.3,29.7,30.24,NE,45,3.8,4.3,28,30.88,,---,0.00,VWS V14.00,2013-09-28 09:11:00,
2013-09-28 05:12:00,63.3,29.7,30.24,NNE,22,3.6,5.4,28,30.88,,---,0.00,VWS V14.00,2013-09-28 09:12:00,
2013-09-28 05:13:00,63.3,29.7,30.24,NE,45,3.6,4.3,28,30.88,,---,0.00,VWS V14.00,2013-09-28 09:13:00,
2013-09-28 05:14:00,63.3,29.7,30.24,NE,45,2.5,5.8,28,30.88,,---,0.00,VWS V14.00,2013-09-28 09:14:00,
2013-09-28 05:18:00,63.1,30.4,30.21,NE,45,4.3,6.3,29,30.88,,---,0.00,VWS V14.00,2013-09-28 09:18:00,
2013-09-28 05:19:00,63.1,30.4,30.21,NNE,22,4.9,4.9,29,30.88,,---,0.00,VWS V14.00,2013-09-28 09:19:00,
2013-09-28 05:21:00,63.1,30.4,30.21,NNE,22,2.7,6.3,29,30.88,,---,0.00,VWS V14.00,2013-09-28 09:21:00,
2013-09-28 05:24:00,63.1,30.4,30.21,NE,45,2.9,4.0,29,30.88,,---,0.00,VWS V14.00,2013-09-28 09:24:00,
2013-09-28 05:26:00,63.1,30.4,30.21,NNE,22,2.7,7.6,29,30.88,,---,0.00,VWS V14.00,2013-09-28 09:26:00,
2013-09-28 05:27:00,63.0,30.2,30.21,NE,45,4.7,4.7,29,30.88,,---,0.00,VWS V14.00,2013-09-28 09:27:00,
2013-09-28 05:31:00,63.0,30.2,30.21,NE,45,4.7,5.8,29,30.88,,---,0.00,VWS V14.00,2013-09-28 09:31:00,
2013-09-28 05:33:00,63.0,29.4,30.18,NNE,22,6.3,7.8,28,30.88,,---,0.00,VWS V14.00,2013-09-28 09:33:00,
2013-09-28 05:35:00,63.0,29.4,30.18,NE,45,5.8,6.3,28,30.88,,---,0.00,VWS V14.00,2013-09-28 09:35:00,
2013-09-28 05:36:00,63.0,29.4,30.18,ENE,68,3.8,6.0,28,30.88,,---,0.00,VWS V14.00,2013-09-28 09:36:00,
2013-09-28 05:38:00,63.0,29.4,30.18,NNE,22,4.3,4.3,28,30.88,,---,0.00,VWS V14.00,2013-09-28 09:38:00,
2013-09-28 05:40:00,63.0,29.4,30.18,NNE,22,3.6,4.7,28,30.88,,---,0.00,VWS V14.00,2013-09-28 09:40:00,
2013-09-28 05:43:00,63.0,29.4,30.18,NE,45,5.4,5.6,28,30.88,,---,0.00,VWS V14.00,2013-09-28 09:43:00,
2013-09-28 05:45:00,63.0,30.2,30.18,NE,45,0.9,4.7,29,30.88,,---,0.00,VWS V14.00,2013-09-28 09:45:00,
2013-09-28 05:47:00,63.0,30.2,30.21,NE,45,6.3,9.2,29,30.88,,---,0.00,VWS V14.00,2013-09-28 09:47:00,
2013-09-28 05:48:00,63.0,30.2,30.21,NE,45,4.0,6.7,29,30.88,,---,0.00,VWS V14.00,2013-09-28 09:48:00,
2013-09-28 05:49:00,63.0,30.2,30.21,ENE,68,5.4,8.1,29,30.88,,---,0.00,VWS V14.00,2013-09-28 09:49:00,
2013-09-28 05:52:00,63.1,30.4,30.21,NNE,22,6.5,6.5,29,30.88,,---,0.00,VWS V14.00,2013-09-28 09:52:00,
2013-09-28 05:54:00,63.1,30.4,30.21,NE,45,7.6,8.5,29,30.88,,---,0.00,VWS V14.00,2013-09-28 09:54:00,
2013-09-28 05:55:00,63.1,30.4,30.21,NE,45,4.9,9.6,29,30.88,,---,0.00,VWS V14.00,2013-09-28 09:55:00,
2013-09-28 05:56:00,63.1,30.4,30.21,NE,45,3.4,4.9,29,30.88,,---,0.00,VWS V14.00,2013-09-28 09:56:00,
2013-09-28 06:00:00,63.1,30.4,30.21,NE,45,3.6,5.4,29,30.88,,---,0.00,VWS V14.00,2013-09-28 10:00:00,
2013-09-28 06:01:00,63.1,30.4,30.21,NNE,22,5.6,6.3,29,30.88,,---,0.00,VWS V14.00,2013-09-28 10:01:00,
2013-09-28 06:05:00,63.0,30.2,30.21,NE,45,5.6,5.6,29,30.88,,---,0.00,VWS V14.00,2013-09-28 10:05:00,
2013-09-28 06:07:00,63.0,31.1,30.21,NNE,22,3.4,5.8,30,30.88,,---,0.00,VWS V14.00,2013-09-28 10:07:00,
2013-09-28 06:10:00,63.0,31.1,30.21,ENE,68,2.7,3.4,30,30.88,,---,0.00,VWS V14.00,2013-09-28 10:10:00,
2013-09-28 06:11:00,63.0,31.1,30.21,NNE,22,3.8,4.7,30,30.88,,---,0.00,VWS V14.00,2013-09-28 10:11:00,
2013-09-28 06:13:00,62.8,30.9,30.21,NE,45,0.0,3.6,30,30.88,,---,0.00,VWS V14.00,2013-09-28 10:13:00,
2013-09-28 06:16:00,62.8,31.7,30.21,NNE,22,3.8,8.1,31,30.88,,---,0.00,VWS V14.00,2013-09-28 10:16:00,
2013-09-28 06:17:00,62.8,31.7,30.21,ENE,68,3.1,7.4,31,30.88,,---,0.00,VWS V14.00,2013-09-28 10:17:00,
2013-09-28 06:18:00,62.8,31.7,30.21,NE,45,2.7,5.6,31,30.88,,---,0.00,VWS V14.00,2013-09-28 10:18:00,
2013-09-28 06:21:00,62.6,31.6,30.21,NE,45,3.6,7.4,31,30.88,,---,0.00,VWS V14.00,2013-09-28 10:21:00,
2013-09-28 06:22:00,62.6,31.6,30.21,ENE,68,4.0,5.4,31,30.88,,---,0.00,VWS V14.00,2013-09-28 10:22:00,
2013-09-28 06:25:00,62.6,31.6,30.21,NE,45,4.3,4.3,31,30.88,,---,0.00,VWS V14.00,2013-09-28 10:25:00,
2013-09-28 06:27:00,62.6,31.6,30.21,NE,45,3.4,5.8,31,30.88,,---,0.00,VWS V14.00,2013-09-28 10:27:00,
2013-09-28 06:29:00,62.4,31.4,30.21,ENE,68,0.0,2.9,31,30.88,,---,0.00,VWS V14.00,2013-09-28 10:29:00,
2013-09-28 06:30:00,62.4,31.4,30.21,NE,45,3.1,4.3,31,30.88,,---,0.00,VWS V14.00,2013-09-28 10:30:00,
2013-09-28 06:33:00,62.4,31.4,30.24,ENE,68,1.1,2.9,31,30.88,,---,0.00,VWS V14.00,2013-09-28 10:33:00,
2013-09-28 06:34:00,62.4,31.4,30.24,NE,45,2.0,2.7,31,30.88,,---,0.00,VWS V14.00,2013-09-28 10:34:00,
2013-09-28 06:38:00,62.2,31.2,30.24,NNE,22,0.0,0.0,31,30.88,,---,0.00,VWS V14.00,2013-09-28 10:38:00,
2013-09-28 06:39:00,62.2,32.0,30.24,NNE,22,0.0,0.0,32,30.88,,---,0.00,VWS V14.00,2013-09-28 10:39:00,
2013-09-28 06:40:00,62.2,32.0,30.24,ENE,68,0.0,0.0,32,30.88,,---,0.00,VWS V14.00,2013-09-28 10:40:00,
2013-09-28 06:43:00,62.2,32.0,30.24,NNE,22,0.0,0.0,32,30.88,,---,0.00,VWS V14.00,2013-09-28 10:43:00,
2013-09-28 06:45:00,62.1,31.9,30.24,NNE,22,0.0,0.0,32,30.88,,---,0.00,VWS V14.00,2013-09-28 10:45:00,
2013-09-28 06:46:00,62.1,31.9,30.24,NNE,22,4.9,4.9,32,30.88,,---,0.00,VWS V14.00,2013-09-28 10:46:00,
2013-09-28 06:47:00,62.1,31.9,30.24,NE,45,1.3,4.9,32,30.88,,---,0.00,VWS V14.00,2013-09-28 10:47:00,
2013-09-28 06:48:00,62.1,31.9,30.24,NNE,22,0.0,1.3,32,30.88,,---,0.00,VWS V14.00,2013-09-28 10:48:00,
2013-09-28 06:51:00,61.9,32.5,30.24,North,0,1.1,2.2,33,30.88,,---,0.00,VWS V14.00,2013-09-28 10:51:00,
2013-09-28 06:53:00,61.7,32.3,30.24,North,0,0.0,0.0,33,30.88,,---,0.00,VWS V14.00,2013-09-28 10:53:00,
2013-09-28 06:55:00,61.7,31.6,30.24,NNE,22,1.1,1.1,32,30.88,,---,0.00,VWS V14.00,2013-09-28 10:55:00,
2013-09-28 06:57:00,61.5,32.2,30.24,NE,45,0.9,0.9,33,30.88,,---,0.00,VWS V14.00,2013-09-28 10:57:00,
2013-09-28 06:58:00,61.5,32.2,30.24,NE,45,1.1,2.5,33,30.88,,---,0.00,VWS V14.00,2013-09-28 10:58:00,
2013-09-28 06:59:00,61.5,32.2,30.24,NNE,22,0.0,1.1,33,30.88,,---,0.00,VWS V14.00,2013-09-28 10:59:00,
2013-09-28 07:01:00,61.5,32.2,30.24,NE,45,0.0,1.6,33,30.88,,---,0.00,VWS V14.00,2013-09-28 11:01:00,
2013-09-28 07:03:00,61.3,32.0,30.24,NNE,22,1.3,2.5,33,30.88,,---,0.00,VWS V14.00,2013-09-28 11:03:00,
2013-09-28 07:04:00,61.7,32.3,30.24,NNE,22,0.0,1.3,33,30.88,,---,0.00,VWS V14.00,2013-09-28 11:04:00,
2013-09-28 07:08:00,62.6,33.1,30.24,NNE,22,0.0,0.0,33,30.88,,---,0.00,VWS V14.00,2013-09-28 11:08:00,
2013-09-28 07:09:00,62.8,33.3,30.24,NNE,22,0.0,0.0,33,30.88,,---,0.00,VWS V14.00,2013-09-28 11:09:00,
2013-09-28 07:12:00,63.3,33.8,30.24,NNE,22,0.0,0.0,33,30.88,,---,0.00,VWS V14.00,2013-09-28 11:12:00,
2013-09-28 07:14:00,63.5,33.9,30.24,NE,45,0.0,0.0,33,30.88,,---,0.00,VWS V14.00,2013-09-28 11:14:00,
2013-09-28 07:15:00,63.7,34.1,30.24,ENE,68,0.0,0.0,33,30.88,,---,0.00,VWS V14.00,2013-09-28 11:15:00,
2013-09-28 07:17:00,63.9,34.2,30.24,NNE,22,0.0,0.0,33,30.88,,---,0.00,VWS V14.00,2013-09-28 11:17:00,
2013-09-28 07:20:00,64.2,34.5,30.24,NNE,22,1.1,2.7,33,30.88,,---,0.00,VWS V14.00,2013-09-28 11:20:00,
2013-09-28 07:21:00,64.0,34.4,30.24,NNE,22,0.0,3.8,33,30.88,,---,0.00,VWS V14.00,2013-09-28 11:21:00,
2013-09-28 07:22:00,64.2,34.5,30.24,NNE,22,0.9,0.9,33,30.88,,---,0.00,VWS V14.00,2013-09-28 11:22:00,
2013-09-28 07:23:00,64.2,34.5,30.24,NNE,22,0.0,0.9,33,30.88,,---,0.00,VWS V14.00,2013-09-28 11:23:00,
2013-09-28 07:25:00,64.2,34.5,30.24,NE,45,1.1,2.7,33,30.88,,---,0.00,VWS V14.00,2013-09-28 11:25:00,
2013-09-28 07:26:00,64.2,33.8,30.24,NE,45,0.0,1.1,32,30.88,,---,0.00,VWS V14.00,2013-09-28 11:26:00,
2013-09-28 07:29:00,64.2,33.8,30.24,NE,45,1.6,2.9,32,30.88,,---,0.00,VWS V14.00,2013-09-28 11:29:00,
2013-09-28 07:31:00,64.8,34.2,30.24,NNE,22,2.5,2.5,32,30.88,,---,0.00,VWS V14.00,2013-09-28 11:31:00,
2013-09-28 07:34:00,65.1,34.6,30.24,NNE,22,0.0,0.0,32,30.88,,---,0.00,VWS V14.00,2013-09-28 11:34:00,
2013-09-28 07:35:00,65.5,34.1,30.24,NNE,22,0.0,0.0,31,30.88,,---,0.00,VWS V14.00,2013-09-28 11:35:00,
2013-09-28 07:36:00,65.7,34.2,30.24,NE,45,0.0,0.0,31,30.88,,---,0.00,VWS V14.00,2013-09-28 11:36:00,
2013-09-28 07:38:00,65.8,34.4,30.24,NNE,22,0.0,0.0,31,30.88,,---,0.00,VWS V14.00,2013-09-28 11:38:00,
2013-09-28 07:40:00,66.0,34.5,30.24,NE,45,0.0,0.0,31,30.88,,---,0.00,VWS V14.00,2013-09-28 11:40:00,
2013-09-28 07:42:00,66.0,33.7,30.24,NNW,338,0.0,0.0,30,30.88,,---,0.00,VWS V14.00,2013-09-28 11:42:00,
2013-09-28 07:44:00,66.2,33.0,30.24,NNE,22,0.0,0.0,29,30.88,,---,0.00,VWS V14.00,2013-09-28 11:44:00,
2013-09-28 07:46:00,66.4,33.2,30.24,NNE,22,0.0,1.3,29,30.88,,---,0.00,VWS V14.00,2013-09-28 11:46:00,
2013-09-28 07:48:00,66.4,33.2,30.27,NNE,22,0.9,1.3,29,30.88,,---,0.00,VWS V14.00,2013-09-28 11:48:00,
2013-09-28 07:51:00,66.6,33.3,30.27,NNE,22,0.0,0.0,29,30.88,,---,0.00,VWS V14.00,2013-09-28 11:51:00,
2013-09-28 07:53:00,66.7,33.5,30.27,NNE,22,0.0,3.4,29,30.88,,---,0.00,VWS V14.00,2013-09-28 11:53:00,
2013-09-28 07:54:00,66.7,33.5,30.27,North,0,2.2,2.5,29,30.88,,---,0.00,VWS V14.00,2013-09-28 11:54:00,
2013-09-28 07:56:00,66.9,33.7,30.27,NE,45,2.9,3.1,29,30.88,,---,0.00,VWS V14.00,2013-09-28 11:56:00,
2013-09-28 07:57:00,66.9,32.8,30.27,NNE,22,2.9,2.9,28,30.88,,---,0.00,VWS V14.00,2013-09-28 11:57:00,
2013-09-28 07:59:00,66.7,32.6,30.27,NE,45,2.0,4.0,28,30.88,,---,0.00,VWS V14.00,2013-09-28 11:59:00,
2013-09-28 08:01:00,66.6,32.5,30.27,NNE,22,2.2,3.6,28,30.88,,---,0.00,VWS V14.00,2013-09-28 12:01:00,
2013-09-28 08:02:00,66.7,32.6,30.27,NNE,22,0.0,2.2,28,30.88,,---,0.00,VWS V14.00,2013-09-28 12:02:00,
2013-09-28 08:06:00,67.1,32.9,30.27,NE,45,3.6,4.0,28,30.88,,---,0.00,VWS V14.00,2013-09-28 12:06:00,
2013-09-28 08:08:00,67.1,32.9,30.27,NE,45,2.2,2.5,28,30.88,,---,0.00,VWS V14.00,2013-09-28 12:08:00,
2013-09-28 08:09:00,67.1,32.9,30.27,NNE,22,2.2,4.3,28,30.88,,---,0.00,VWS V14.00,2013-09-28 12:09:00,
2013-09-28 08:11:00,67.3,33.1,30.27,NNE,22,1.3,1.6,28,30.88,,---,0.00,VWS V14.00,2013-09-28 12:11:00,
2013-09-28 08:13:00,67.8,33.5,30.27,NNE,22,0.0,0.0,28,30.88,,---,0.00,VWS V14.00,2013-09-28 12:13:00,
2013-09-28 08:15:00,68.0,32.8,30.27,NNE,22,0.0,0.0,27,30.88,,---,0.00,VWS V14.00,2013-09-28 12:15:00,
2013-09-28 08:18:00,68.2,33.0,30.27,NNE,22,1.3,2.9,27,30.88,,---,0.00,VWS V14.00,2013-09-28 12:18:00,
2013-09-28 08:19:00,68.2,33.0,30.27,NNE,22,0.0,1.3,27,30.88,,---,0.00,VWS V14.00,2013-09-28 12:19:00,
2013-09-28 08:20:00,68.5,33.3,30.27,NNE,22,0.0,0.0,27,30.88,,---,0.00,VWS V14.00,2013-09-28 12:20:00,
2013-09-28 08:21:00,68.7,33.4,30.27,NNE,22,0.0,0.0,27,30.88,,---,0.00,VWS V14.00,2013-09-28 12:21:00,
2013-09-28 08:24:00,68.7,32.5,30.27,NNE,22,3.1,3.1,26,30.88,,---,0.00,VWS V14.00,2013-09-28 12:24:00,
2013-09-28 08:26:00,68.4,32.2,30.27,NNE,22,2.0,5.8,26,30.88,,---,0.00,VWS V14.00,2013-09-28 12:26:00,
2013-09-28 08:27:00,68.4,31.2,30.27,NNE,22,1.6,3.6,25,30.88,,---,0.00,VWS V14.00,2013-09-28 12:27:00,
2013-09-28 08:30:00,68.7,32.5,30.27,NE,45,2.5,3.1,26,30.88,,---,0.00,VWS V14.00,2013-09-28 12:30:00,
2013-09-28 08:33:00,69.3,32.9,30.27,NNE,22,4.0,5.4,26,30.88,,---,0.00,VWS V14.00,2013-09-28 12:33:00,
2013-09-28 08:35:00,69.1,31.8,30.27,NE,45,3.1,4.3,25,30.88,,---,0.00,VWS V14.00,2013-09-28 12:35:00,
2013-09-28 08:36:00,69.1,31.8,30.27,NNE,22,2.5,4.9,25,30.88,,---,0.00,VWS V14.00,2013-09-28 12:36:00,
2013-09-28 08:37:00,69.1,31.8,30.27,NE,45,4.3,4.3,25,30.88,,---,0.00,VWS V14.00,2013-09-28 12:37:00,
2013-09-28 08:42:00,68.7,31.5,30.27,NNE,22,2.7,3.4,25,30.88,,---,0.00,VWS V14.00,2013-09-28 12:42:00,
2013-09-28 08:43:00,69.1,31.8,30.27,NNE,22,0.0,2.7,25,30.88,,---,0.00,VWS V14.00,2013-09-28 12:43:00,
2013-09-28 08:44:00,69.1,31.8,30.27,NE,45,0.0,0.0,25,30.88,,---,0.00,VWS V14.00,2013-09-28 12:44:00,
2013-09-28 08:47:00,70.2,31.7,30.27,NE,45,2.9,2.9,24,30.88,,---,0.00,VWS V14.00,2013-09-28 12:47:00,
2013-09-28 08:48:00,70.3,31.9,30.27,NE,45,6.3,6.3,24,30.88,,---,0.00,VWS V14.00,2013-09-28 12:48:00,
2013-09-28 08:49:00,70.2,31.7,30.27,NNE,22,6.0,7.4,24,30.88,,---,0.00,VWS V14.00,2013-09-28 12:49:00,
2013-09-28 08:50:00,69.8,30.4,30.27,ENE,68,8.7,8.7,23,30.88,,---,0.00,VWS V14.00,2013-09-28 12:50:00,
2013-09-28 08:51:00,69.3,31.0,30.27,ENE,68,6.0,8.7,24,30.88,,---,0.00,VWS V14.00,2013-09-28 12:51:00,
2013-09-28 08:53:00,68.5,29.3,30.27,NE,45,6.7,12.5,23,30.88,,---,0.00,VWS V14.00,2013-09-28 12:53:00,
2013-09-28 08:54:00,68.5,30.4,30.27,NE,45,11.0,11.0,24,30.88,,---,0.00,VWS V14.00,2013-09-28 12:54:00,
2013-09-28 08:57:00,68.9,30.6,30.27,North,0,5.6,6.3,24,30.88,,---,0.00,VWS V14.00,2013-09-28 12:57:00,
2013-09-28 08:58:00,68.9,30.6,30.27,NE,45,8.1,8.1,24,30.88,,---,0.00,VWS V14.00,2013-09-28 12:58:00,
2013-09-28 08:59:00,68.5,30.4,30.27,NE,45,9.8,9.8,24,30.88,,---,0.00,VWS V14.00,2013-09-28 12:59:00,
2013-09-28 09:00:00,68.5,30.4,30.27,NE,45,10.7,10.7,24,30.88,,---,0.00,VWS V14.00,2013-09-28 13:00:00,
2013-09-28 09:03:00,68.5,30.4,30.27,NE,45,6.0,8.7,24,30.88,,---,0.00,VWS V14.00,2013-09-28 13:03:00,
2013-09-28 09:04:00,68.7,30.5,30.27,NNE,22,8.5,8.5,24,30.88,,---,0.00,VWS V14.00,2013-09-28 13:04:00,
2013-09-28 09:08:00,69.3,31.0,30.27,ENE,68,4.7,5.8,24,30.88,,---,0.00,VWS V14.00,2013-09-28 13:08:00,
2013-09-28 09:09:00,69.4,31.1,30.27,ENE,68,4.3,4.9,24,30.88,,---,0.00,VWS V14.00,2013-09-28 13:09:00,
2013-09-28 09:10:00,69.4,31.1,30.27,East,90,8.7,8.7,24,30.88,,---,0.00,VWS V14.00,2013-09-28 13:10:00,
2013-09-28 09:13:00,69.1,30.8,30.27,ENE,68,7.8,8.1,24,30.88,,---,0.00,VWS V14.00,2013-09-28 13:13:00,
2013-09-28 09:14:00,69.1,30.8,30.27,ENE,68,5.8,7.8,24,30.88,,---,0.00,VWS V14.00,2013-09-28 13:14:00,
2013-09-28 09:16:00,68.9,30.6,30.27,ENE,68,9.6,9.6,24,30.88,,---,0.00,VWS V14.00,2013-09-28 13:16:00,
2013-09-28 09:18:00,68.9,30.6,30.27,NE,45,7.4,7.4,24,30.88,,---,0.00,VWS V14.00,2013-09-28 13:18:00,
2013-09-28 09:20:00,68.7,30.5,30.27,ENE,68,6.3,7.6,24,30.88,,---,0.00,VWS V14.00,2013-09-28 13:20:00,
2013-09-28 09:22:00,68.7,30.5,30.27,NE,45,6.7,6.7,24,30.88,,---,0.00,VWS V14.00,2013-09-28 13:22:00,
2013-09-28 09:23:00,68.5,30.4,30.27,ENE,68,10.3,12.5,24,30.88,,---,0.00,VWS V14.00,2013-09-28 13:23:00,
2013-09-28 09:28:00,68.4,30.2,30.27,NNE,22,6.0,8.1,24,30.88,,---,0.00,VWS V14.00,2013-09-28 13:28:00,
2013-09-28 09:30:00,68.7,30.5,30.27,NE,45,6.5,7.8,24,30.88,,---,0.00,VWS V14.00,2013-09-28 13:30:00,
2013-09-28 09:33:00,68.9,30.6,30.27,ENE,68,6.3,7.4,24,30.88,,---,0.00,VWS V14.00,2013-09-28 13:33:00,
2013-09-28 09:34:00,68.9,30.6,30.27,NE,45,5.8,8.1,24,30.88,,---,0.00,VWS V14.00,2013-09-28 13:34:00,
2013-09-28 09:35:00,68.9,30.6,30.27,NNE,22,5.8,8.1,24,30.88,,---,0.00,VWS V14.00,2013-09-28 13:35:00,
2013-09-28 09:38:00,68.5,30.4,30.27,ENE,68,5.8,12.1,24,30.88,,---,0.00,VWS V14.00,2013-09-28 13:38:00,
2013-09-28 09:40:00,67.8,29.7,30.27,NE,45,8.5,15.4,24,30.88,,---,0.00,VWS V14.00,2013-09-28 13:40:00,
2013-09-28 09:41:00,67.8,29.7,30.27,ENE,68,8.5,11.0,24,30.88,,---,0.00,VWS V14.00,2013-09-28 13:41:00,
2013-09-28 09:43:00,68.0,29.9,30.27,NNE,22,7.8,8.1,24,30.88,,---,0.00,VWS V14.00,2013-09-28 13:43:00,
2013-09-28 09:45:00,68.2,30.0,30.27,NE,45,4.9,7.6,24,30.88,,---,0.00,VWS V14.00,2013-09-28 13:45:00,
2013-09-28 09:46:00,68.4,30.2,30.27,NE,45,3.8,4.9,24,30.88,,---,0.00,VWS V14.00,2013-09-28 13:46:00,
2013-09-28 09:49:00,68.5,30.4,30.27,NE,45,6.5,6.5,24,30.88,,---,0.00,VWS V14.00,2013-09-28 13:49:00,
2013-09-28 09:50:00,68.5,30.4,30.27,NNE,22,3.8,7.8,24,30.88,,---,0.00,VWS V14.00,2013-09-28 13:50:00,
2013-09-28 09:52:00,68.4,30.2,30.27,ENE,68,7.6,8.5,24,30.88,,---,0.00,VWS V14.00,2013-09-28 13:52:00,
2013-09-28 09:54:00,68.4,30.2,30.27,ENE,68,10.5,10.5,24,30.88,,---,0.00,VWS V14.00,2013-09-28 13:54:00,
2013-09-28 09:55:00,68.2,30.0,30.27,NNE,22,3.4,10.5,24,30.88,,---,0.00,VWS V14.00,2013-09-28 13:55:00,
2013-09-28 09:57:00,68.4,30.2,30.27,ENE,68,7.8,8.1,24,30.88,,---,0.00,VWS V14.00,2013-09-28 13:57:00,
2013-09-28 10:00:00,68.7,30.5,30.27,NE,45,6.7,6.7,24,30.88,,---,0.00,VWS V14.00,2013-09-28 14:00:00,
2013-09-28 10:01:00,68.7,30.5,30.27,NNE,22,6.3,8.5,24,30.88,,---,0.00,VWS V14.00,2013-09-28 14:01:00,
2013-09-28 10:04:00,69.1,30.8,30.27,ENE,68,4.5,7.4,24,30.88,,---,0.00,VWS V14.00,2013-09-28 14:04:00,
2013-09-28 10:05:00,69.1,29.8,30.27,NNE,22,6.9,10.7,23,30.88,,---,0.00,VWS V14.00,2013-09-28 14:05:00,
2013-09-28 10:07:00,68.5,29.3,30.27,East,90,7.6,8.7,23,30.88,,---,0.00,VWS V14.00,2013-09-28 14:07:00,
2013-09-28 10:09:00,68.7,30.5,30.27,ENE,68,5.4,7.4,24,30.88,,---,0.00,VWS V14.00,2013-09-28 14:09:00,
2013-09-28 10:10:00,68.9,30.6,30.27,NE,45,5.6,8.5,24,30.88,,---,0.00,VWS V14.00,2013-09-28 14:10:00,
2013-09-28 10:11:00,68.7,30.5,30.27,ENE,68,11.9,11.9,24,30.88,,---,0.00,VWS V14.00,2013-09-28 14:11:00,
2013-09-28 10:12:00,68.5,29.3,30.27,ENE,68,4.0,11.9,23,30.88,,---,0.00,VWS V14.00,2013-09-28 14:12:00,
2013-09-28 10:13:00,68.4,29.1,30.27,NE,45,7.8,7.8,23,30.88,,---,0.00,VWS V14.00,2013-09-28 14:13:00,
2013-09-28 10:15:00,68.4,29.1,30.27,NE,45,8.7,8.7,23,30.88,,---,0.00,VWS V14.00,2013-09-28 14:15:00,
2013-09-28 10:17:00,68.0,28.9,30.27,ENE,68,8.7,12.8,23,30.88,,---,0.00,VWS V14.00,2013-09-28 14:17:00,
2013-09-28 10:18:00,68.0,28.9,30.27,ENE,68,5.8,10.7,23,30.88,,---,0.00,VWS V14.00,2013-09-28 14:18:00,
2013-09-28 10:21:00,68.7,29.5,30.27,ENE,68,6.0,6.0,23,30.88,,---,0.00,VWS V14.00,2013-09-28 14:21:00,
2013-09-28 10:22:00,68.7,29.5,30.27,NE,45,3.8,10.1,23,30.88,,---,0.00,VWS V14.00,2013-09-28 14:22:00,
2013-09-28 10:23:00,68.7,29.5,30.27,East,90,3.4,4.9,23,30.88,,---,0.00,VWS V14.00,2013-09-28 14:23:00,
2013-09-28 10:24:00,68.9,29.6,30.27,NNE,22,4.3,10.7,23,30.88,,---,0.00,VWS V14.00,2013-09-28 14:24:00,
2013-09-28 10:28:00,68.9,29.6,30.27,NNE,22,7.6,7.8,23,30.88,,---,0.00,VWS V14.00,2013-09-28 14:28:00,
2013-09-28 10:30:00,69.6,30.2,30.27,NE,45,5.6,5.8,23,30.88,,---,0.00,VWS V14.00,2013-09-28 14:30:00,
2013-09-28 10:31:00,69.6,30.2,30.27,NNE,22,4.0,6.5,23,30.88,,---,0.00,VWS V14.00,2013-09-28 14:31:00,
2013-09-28 10:32:00,69.4,30.1,30.27,NE,45,5.8,9.8,23,30.88,,---,0.00,VWS V14.00,2013-09-28 14:32:00,
2013-09-28 10:35:00,69.4,30.1,30.27,NNE,22,4.0,7.8,23,30.88,,---,0.00,VWS V14.00,2013-09-28 14:35:00,
2013-09-28 10:39:00,69.6,30.2,30.27,NNE,22,7.4,8.7,23,30.88,,---,0.00,VWS V14.00,2013-09-28 14:39:00,
2013-09-28 10:40:00,69.6,30.2,30.27,NE,45,6.5,7.4,23,30.88,,---,0.00,VWS V14.00,2013-09-28 14:40:00,
2013-09-28 10:41:00,69.4,30.1,30.27,NE,45,3.6,10.3,23,30.88,,---,0.00,VWS V14.00,2013-09-28 14:41:00,
2013-09-28 10:44:00,69.3,29.9,30.27,NE,45,3.8,9.8,23,30.88,,---,0.00,VWS V14.00,2013-09-28 14:44:00,
2013-09-28 10:45:00,69.4,30.1,30.27,NE,45,7.4,7.4,23,30.88,,---,0.00,VWS V14.00,2013-09-28 14:45:00,
2013-09-28 10:46:00,69.4,30.1,30.27,NE,45,6.5,7.6,23,30.88,,---,0.00,VWS V14.00,2013-09-28 14:46:00,
2013-09-28 10:48:00,69.6,30.2,30.27,NNE,22,5.8,5.8,23,30.88,,---,0.00,VWS V14.00,2013-09-28 14:48:00,
2013-09-28 10:50:00,69.6,30.2,30.27,NE,45,9.4,9.4,23,30.88,,---,0.00,VWS V14.00,2013-09-28 14:50:00,
2013-09-28 10:51:00,69.4,30.1,30.27,NE,45,6.5,9.4,23,30.88,,---,0.00,VWS V14.00,2013-09-28 14:51:00,
2013-09-28 10:53:00,69.3,29.9,30.27,NE,45,7.8,8.5,23,30.88,,---,0.00,VWS V14.00,2013-09-28 14:53:00,
2013-09-28 10:56:00,69.1,29.8,30.27,NNE,22,7.4,8.5,23,30.88,,---,0.00,VWS V14.00,2013-09-28 14:56:00,
2013-09-28 10:57:00,69.3,29.9,30.27,NE,45,6.5,7.4,23,30.88,,---,0.00,VWS V14.00,2013-09-28 14:57:00,
2013-09-28 10:59:00,69.1,29.8,30.27,ENE,68,10.1,11.0,23,30.88,,---,0.00,VWS V14.00,2013-09-28 14:59:00,
2013-09-28 11:01:00,69.3,29.9,30.27,ENE,68,8.1,8.1,23,30.88,,---,0.00,VWS V14.00,2013-09-28 15:01:00,
2013-09-28 11:02:00,69.3,29.9,30.27,NNE,22,5.4,11.0,23,30.88,,---,0.00,VWS V14.00,2013-09-28 15:02:00,
2013-09-28 11:06:00,69.4,30.1,30.27,ENE,68,7.2,7.8,23,30.88,,---,0.00,VWS V14.00,2013-09-28 15:06:00,
2013-09-28 11:08:00,69.3,29.9,30.27,ENE,68,5.8,8.5,23,30.88,,---,0.00,VWS V14.00,2013-09-28 15:08:00,
2013-09-28 11:10:00,69.1,29.8,30.27,ENE,68,8.1,10.1,23,30.88,,---,0.00,VWS V14.00,2013-09-28 15:10:00,
2013-09-28 11:11:00,68.9,29.6,30.27,ENE,68,7.4,8.5,23,30.88,,---,0.00,VWS V14.00,2013-09-28 15:11:00,
2013-09-28 11:13:00,69.1,29.8,30.27,East,90,4.0,10.3,23,30.88,,---,0.00,VWS V14.00,2013-09-28 15:13:00,
2013-09-28 11:15:00,69.4,30.1,30.27,ENE,68,10.7,10.7,23,30.88,,---,0.00,VWS V14.00,2013-09-28 15:15:00,
2013-09-28 11:17:00,69.1,29.8,30.27,ENE,68,8.7,11.0,23,30.88,,---,0.00,VWS V14.00,2013-09-28 15:17:00,
2013-09-28 11:18:00,69.1,29.8,30.27,NE,45,8.1,8.7,23,30.88,,---,0.00,VWS V14.00,2013-09-28 15:18:00,
2013-09-28 11:19:00,69.1,29.8,30.27,NE,45,4.3,11.0,23,30.88,,---,0.00,VWS V14.00,2013-09-28 15:19:00,
2013-09-28 11:23:00,69.1,29.8,30.27,ENE,68,7.4,11.2,23,30.88,,---,0.00,VWS V14.00,2013-09-28 15:23:00,
2013-09-28 11:24:00,69.1,29.8,30.27,ENE,68,13.2,13.2,23,30.88,,---,0.00,VWS V14.00,2013-09-28 15:24:00,
2013-09-28 11:26:00,68.7,29.5,30.27,NE,45,5.4,12.3,23,30.88,,---,0.00,VWS V14.00,2013-09-28 15:26:00,
2013-09-28 11:30:00,69.3,29.9,30.27,NE,45,8.5,8.5,23,30.88,,---,0.00,VWS V14.00,2013-09-28 15:30:00,
2013-09-28 11:31:00,69.1,29.8,30.27,ENE,68,9.8,10.7,23,30.88,,---,0.00,VWS V14.00,2013-09-28 15:31:00,
2013-09-28 11:32:00,69.1,29.8,30.27,ENE,68,7.8,11.9,23,30.88,,---,0.00,VWS V14.00,2013-09-28 15:32:00,
2013-09-28 11:34:00,69.4,30.1,30.27,NNE,22,6.9,8.7,23,30.88,,---,0.00,VWS V14.00,2013-09-28 15:34:00,
2013-09-28 11:37:00,70.0,30.5,30.27,NE,45,6.3,6.3,23,30.88,,---,0.00,VWS V14.00,2013-09-28 15:37:00,
2013-09-28 11:38:00,69.8,30.4,30.27,ENE,68,10.7,10.7,23,30.88,,---,0.00,VWS V14.00,2013-09-28 15:38:00,
2013-09-28 11:39:00,69.4,30.1,30.27,NE,45,11.9,12.1,23,30.88,,---,0.00,VWS V14.00,2013-09-28 15:39:00,
2013-09-28 11:41:00,69.4,30.1,30.27,East,90,7.2,10.5,23,30.88,,---,0.00,VWS V14.00,2013-09-28 15:41:00,
2013-09-28 11:44:00,69.4,30.1,30.27,ENE,68,8.1,10.5,23,30.88,,---,0.00,VWS V14.00,2013-09-28 15:44:00,
2013-09-28 11:45:00,69.4,30.1,30.27,NE,45,6.7,8.1,23,30.88,,---,0.00,VWS V14.00,2013-09-28 15:45:00,
2013-09-28 11:46:00,69.4,30.1,30.27,ENE,68,7.8,7.8,23,30.88,,---,0.00,VWS V14.00,2013-09-28 15:46:00,
2013-09-28 11:50:00,69.4,30.1,30.24,NE,45,6.0,8.7,23,30.88,,---,0.00,VWS V14.00,2013-09-28 15:50:00,
2013-09-28 11:51:00,69.6,30.2,30.24,ENE,68,7.2,10.1,23,30.88,,---,0.00,VWS V14.00,2013-09-28 15:51:00,
2013-09-28 11:52:00,69.4,30.1,30.24,ENE,68,6.9,10.3,23,30.88,,---,0.00,VWS V14.00,2013-09-28 15:52:00,
2013-09-28 11:55:00,69.6,30.2,30.24,NE,45,7.2,7.2,23,30.88,,---,0.00,VWS V14.00,2013-09-28 15:55:00,
2013-09-28 11:57:00,69.6,30.2,30.24,ENE,68,5.8,10.3,23,30.88,,---,0.00,VWS V14.00,2013-09-28 15:57:00,
2013-09-28 11:59:00,69.4,30.1,30.24,ENE,68,9.8,9.8,23,30.88,,---,0.00,VWS V14.00,2013-09-28 15:59:00,
2013-09-28 12:01:00,69.4,30.1,30.24,NNE,22,7.2,9.4,23,30.88,,---,0.00,VWS V14.00,2013-09-28 16:01:00,
2013-09-28 12:04:00,69.6,30.2,30.27,NE,45,4.0,9.4,23,30.88,,---,0.00,VWS V14.00,2013-09-28 16:04:00,
2013-09-28 12:06:00,69.8,29.3,30.27,ENE,68,8.1,8.1,22,30.88,,---,0.00,VWS V14.00,2013-09-28 16:06:00,
2013-09-28 12:07:00,69.6,29.1,30.27,NE,45,7.8,10.7,22,30.88,,---,0.00,VWS V14.00,2013-09-28 16:07:00,
2013-09-28 12:09:00,69.6,29.1,30.27,NNE,22,7.2,8.1,22,30.88,,---,0.00,VWS V14.00,2013-09-28 16:09:00,
2013-09-28 12:10:00,69.8,29.3,30.27,ENE,68,8.5,10.7,22,30.88,,---,0.00,VWS V14.00,2013-09-28 16:10:00,
2013-09-28 12:11:00,69.8,29.3,30.27,ENE,68,6.3,9.6,22,30.88,,---,0.00,VWS V14.00,2013-09-28 16:11:00,
2013-09-28 12:12:00,69.6,29.1,30.27,NNE,22,7.6,9.8,22,30.88,,---,0.00,VWS V14.00,2013-09-28 16:12:00,
2013-09-28 12:16:00,69.8,29.3,30.27,NE,45,7.4,9.4,22,30.88,,---,0.00,VWS V14.00,2013-09-28 16:16:00,
2013-09-28 12:17:00,69.8,29.3,30.24,NE,45,7.6,9.8,22,30.88,,---,0.00,VWS V14.00,2013-09-28 16:17:00,
2013-09-28 12:18:00,70.0,29.4,30.24,NE,45,6.3,7.6,22,30.88,,---,0.00,VWS V14.00,2013-09-28 16:18:00,
2013-09-28 12:20:00,69.8,29.3,30.24,NNE,22,6.3,13.4,22,30.88,,---,0.00,VWS V14.00,2013-09-28 16:20:00,
2013-09-28 12:23:00,70.0,29.4,30.24,NE,45,7.4,7.4,22,30.88,,---,0.00,VWS V14.00,2013-09-28 16:23:00,
2013-09-28 12:25:00,70.0,29.4,30.24,ENE,68,4.0,7.8,22,30.88,,---,0.00,VWS V14.00,2013-09-28 16:25:00,
2013-09-28 12:26:00,70.0,29.4,30.24,NNE,22,5.4,7.4,22,30.88,,---,0.00,VWS V14.00,2013-09-28 16:26:00,
2013-09-28 12:27:00,70.3,29.7,30.24,NE,45,4.3,5.6,22,30.88,,---,0.00,VWS V14.00,2013-09-28 16:27:00,
2013-09-28 12:29:00,70.3,29.7,30.24,ESE,112,8.7,8.7,22,30.88,,---,0.00,VWS V14.00,2013-09-28 16:29:00,
2013-09-28 12:33:00,70.3,29.7,30.27,ENE,68,6.3,7.4,22,30.88,,---,0.00,VWS V14.00,2013-09-28 16:33:00,
2013-09-28 12:34:00,70.5,29.9,30.27,NE,45,5.8,6.3,22,30.88,,---,0.00,VWS V14.00,2013-09-28 16:34:00,
2013-09-28 12:35:00,70.3,29.7,30.27,NE,45,7.8,12.1,22,30.88,,---,0.00,VWS V14.00,2013-09-28 16:35:00,
2013-09-28 12:36:00,70.5,29.9,30.27,ENE,68,8.1,8.1,22,30.88,,---,0.00,VWS V14.00,2013-09-28 16:36:00,
2013-09-28 12:38:00,70.5,29.9,30.27,ENE,68,7.2,8.7,22,30.88,,---,0.00,VWS V14.00,2013-09-28 16:38:00,
2013-09-28 12:39:00,70.7,30.0,30.27,NNE,22,4.0,7.2,22,30.88,,---,0.00,VWS V14.00,2013-09-28 16:39:00,
2013-09-28 12:40:00,70.9,30.2,30.27,NE,45,10.1,10.1,22,30.88,,---,0.00,VWS V14.00,2013-09-28 16:40:00,
2013-09-28 12:43:00,70.5,29.9,30.27,ESE,112,4.9,6.3,22,30.88,,---,0.00,VWS V14.00,2013-09-28 16:43:00,
2013-09-28 12:45:00,70.5,29.9,30.27,NE,45,6.5,6.5,22,30.88,,---,0.00,VWS V14.00,2013-09-28 16:45:00,
2013-09-28 12:46:00,70.3,29.7,30.27,NE,45,5.8,7.4,22,30.88,,---,0.00,VWS V14.00,2013-09-28 16:46:00,
2013-09-28 12:48:00,70.3,29.7,30.27,ENE,68,5.4,8.1,22,30.88,,---,0.00,VWS V14.00,2013-09-28 16:48:00,
2013-09-28 12:49:00,70.3,29.7,30.27,NE,45,6.0,6.7,22,30.88,,---,0.00,VWS V14.00,2013-09-28 16:49:00,
2013-09-28 12:52:00,70.3,29.7,30.27,NNE,22,5.8,8.5,22,30.88,,---,0.00,VWS V14.00,2013-09-28 16:52:00,
2013-09-28 12:54:00,70.5,29.9,30.27,ENE,68,3.6,8.7,22,30.88,,---,0.00,VWS V14.00,2013-09-28 16:54:00,
2013-09-28 12:55:00,70.5,29.9,30.27,ENE,68,6.3,8.5,22,30.88,,---,0.00,VWS V14.00,2013-09-28 16:55:00,
2013-09-28 12:57:00,70.2,29.6,30.27,East,90,8.7,11.0,22,30.88,,---,0.00,VWS V14.00,2013-09-28 16:57:00,
2013-09-28 12:59:00,70.0,29.4,30.27,NE,45,3.8,7.8,22,30.88,,---,0.00,VWS V14.00,2013-09-28 16:59:00,
2013-09-28 13:00:00,70.0,29.4,30.27,ENE,68,8.7,8.7,22,30.88,,---,0.00,VWS V14.00,2013-09-28 17:00:00,
2013-09-28 13:01:00,70.0,29.4,30.27,NE,45,12.3,12.8,22,30.88,,---,0.00,VWS V14.00,2013-09-28 17:01:00,
2013-09-28 13:02:00,70.0,29.4,30.27,East,90,6.0,12.3,22,30.88,,---,0.00,VWS V14.00,2013-09-28 17:02:00,
2013-09-28 13:05:00,70.5,29.9,30.27,NE,45,6.5,7.8,22,30.88,,---,0.00,VWS V14.00,2013-09-28 17:05:00,
2013-09-28 13:06:00,70.3,29.7,30.27,NE,45,5.4,8.1,22,30.88,,---,0.00,VWS V14.00,2013-09-28 17:06:00,
2013-09-28 13:09:00,70.5,29.9,30.27,ENE,68,6.7,8.1,22,30.88,,---,0.00,VWS V14.00,2013-09-28 17:09:00,
2013-09-28 13:11:00,70.5,29.9,30.27,NNE,22,7.6,7.6,22,30.88,,---,0.00,VWS V14.00,2013-09-28 17:11:00,
2013-09-28 13:12:00,70.9,30.2,30.27,NNE,22,5.4,7.6,22,30.88,,---,0.00,VWS V14.00,2013-09-28 17:12:00,
2013-09-28 13:14:00,70.7,30.0,30.27,NE,45,8.5,12.3,22,30.88,,---,0.00,VWS V14.00,2013-09-28 17:14:00,
2013-09-28 13:15:00,70.9,30.2,30.27,NE,45,4.9,8.5,22,30.88,,---,0.00,VWS V14.00,2013-09-28 17:15:00,
2013-09-28 13:17:00,70.9,30.2,30.27,ENE,68,7.6,8.1,22,30.88,,---,0.00,VWS V14.00,2013-09-28 17:17:00,
2013-09-28 13:18:00,71.1,30.3,30.27,ENE,68,7.2,7.8,22,30.88,,---,0.00,VWS V14.00,2013-09-28 17:18:00,
2013-09-28 13:19:00,71.2,30.5,30.27,ENE,68,5.4,7.2,22,30.88,,---,0.00,VWS V14.00,2013-09-28 17:19:00,
2013-09-28 13:22:00,71.2,30.5,30.27,NE,45,5.4,8.7,22,30.88,,---,0.00,VWS V14.00,2013-09-28 17:22:00,
2013-09-28 13:24:00,71.1,30.3,30.27,NNE,22,5.6,9.8,22,30.88,,---,0.00,VWS V14.00,2013-09-28 17:24:00,
2013-09-28 13:25:00,71.1,30.3,30.27,NE,45,6.3,7.4,22,30.88,,---,0.00,VWS V14.00,2013-09-28 17:25:00,
2013-09-28 13:30:00,70.7,30.0,30.27,ENE,68,6.3,10.5,22,30.88,,---,0.00,VWS V14.00,2013-09-28 17:30:00,
2013-09-28 13:35:00,70.7,30.0,30.24,East,90,5.8,5.8,22,30.88,,---,0.00,VWS V14.00,2013-09-28 17:35:00,
2013-09-28 13:36:00,70.9,30.2,30.24,NE,45,4.3,5.8,22,30.88,,---,0.00,VWS V14.00,2013-09-28 17:36:00,
2013-09-28 13:40:00,71.1,30.3,30.24,NE,45,8.5,9.8,22,30.88,,---,0.00,VWS V14.00,2013-09-28 17:40:00,
2013-09-28 13:43:00,71.2,30.5,30.24,NNE,22,8.1,8.1,22,30.88,,---,0.00,VWS V14.00,2013-09-28 17:43:00,
2013-09-28 13:45:00,71.2,30.5,30.24,ENE,68,7.4,10.1,22,30.88,,---,0.00,VWS V14.00,2013-09-28 17:45:00,
2013-09-28 13:48:00,70.9,30.2,30.24,NNE,22,5.6,5.6,22,30.88,,---,0.00,VWS V14.00,2013-09-28 17:48:00,
2013-09-28 13:54:00,70.5,29.9,30.24,ENE,68,8.5,9.8,22,30.88,,---,0.00,VWS V14.00,2013-09-28 17:54:00,
2013-09-28 13:55:00,70.5,29.9,30.24,NNE,22,3.4,10.7,22,30.88,,---,0.00,VWS V14.00,2013-09-28 17:55:00,
2013-09-28 13:56:00,70.5,29.9,30.24,NE,45,10.7,10.7,22,30.88,,---,0.00,VWS V14.00,2013-09-28 17:56:00,
2013-09-28 14:00:00,71.2,30.5,30.24,NE,45,5.6,9.6,22,30.88,,---,0.00,VWS V14.00,2013-09-28 18:00:00,
2013-09-28 14:01:00,71.2,30.5,30.24,East,90,8.5,10.5,22,30.88,,---,0.00,VWS V14.00,2013-09-28 18:01:00,
2013-09-28 14:03:00,71.2,30.5,30.24,ENE,68,5.6,7.2,22,30.88,,---,0.00,VWS V14.00,2013-09-28 18:03:00,
2013-09-28 14:04:00,71.2,30.5,30.24,ENE,68,4.9,7.6,22,30.88,,---,0.00,VWS V14.00,2013-09-28 18:04:00,
2013-09-28 14:08:00,71.4,30.6,30.24,ENE,68,8.7,9.8,22,30.88,,---,0.00,VWS V14.00,2013-09-28 18:08:00,
2013-09-28 14:09:00,71.6,29.6,30.24,ESE,112,3.6,8.7,21,30.88,,---,0.00,VWS V14.00,2013-09-28 18:09:00,
2013-09-28 14:10:00,71.4,30.6,30.24,NNE,22,5.4,10.3,22,30.88,,---,0.00,VWS V14.00,2013-09-28 18:10:00,
2013-09-28 14:15:00,71.6,29.6,30.24,NE,45,6.3,8.7,21,30.88,,---,0.00,VWS V14.00,2013-09-28 18:15:00,
2013-09-28 14:16:00,71.6,29.6,30.24,ENE,68,5.8,8.5,21,30.88,,---,0.00,VWS V14.00,2013-09-28 18:16:00,
2013-09-28 14:17:00,71.8,29.8,30.24,ENE,68,4.3,7.4,21,30.88,,---,0.00,VWS V14.00,2013-09-28 18:17:00,
2013-09-28 14:21:00,71.1,30.3,30.24,East,90,10.7,12.8,22,30.88,,---,0.00,VWS V14.00,2013-09-28 18:21:00,
2013-09-28 14:24:00,71.2,30.5,30.24,East,90,6.5,11.0,22,30.88,,---,0.00,VWS V14.00,2013-09-28 18:24:00,
2013-09-28 14:26:00,71.4,30.6,30.24,NE,45,9.2,10.3,22,30.88,,---,0.00,VWS V14.00,2013-09-28 18:26:00,
2013-09-28 14:28:00,70.9,30.2,30.24,NE,45,10.1,10.7,22,30.88,,---,0.00,VWS V14.00,2013-09-28 18:28:00,
2013-09-28 14:30:00,70.9,30.2,30.24,ENE,68,5.4,9.8,22,30.88,,---,0.00,VWS V14.00,2013-09-28 18:30:00,
2013-09-28 14:31:00,70.9,30.2,30.24,ENE,68,7.6,8.7,22,30.88,,---,0.00,VWS V14.00,2013-09-28 18:31:00,
2013-09-28 14:34:00,71.6,29.6,30.24,ENE,68,5.4,10.5,21,30.88,,---,0.00,VWS V14.00,2013-09-28 18:34:00,
2013-09-28 14:36:00,71.4,30.6,30.24,ENE,68,10.7,14.8,22,30.88,,---,0.00,VWS V14.00,2013-09-28 18:36:00,
2013-09-28 14:38:00,71.2,30.5,30.24,ESE,112,6.5,10.5,22,30.88,,---,0.00,VWS V14.00,2013-09-28 18:38:00,
2013-09-28 14:41:00,71.6,29.6,30.24,NNE,22,5.4,8.7,21,30.88,,---,0.00,VWS V14.00,2013-09-28 18:41:00,
2013-09-28 14:42:00,71.6,29.6,30.24,NE,45,7.4,9.8,21,30.88,,---,0.00,VWS V14.00,2013-09-28 18:42:00,
2013-09-28 14:43:00,71.4,30.6,30.24,ENE,68,4.9,9.6,22,30.88,,---,0.00,VWS V14.00,2013-09-28 18:43:00,
2013-09-28 14:46:00,71.6,29.6,30.24,ENE,68,5.8,6.3,21,30.88,,---,0.00,VWS V14.00,2013-09-28 18:46:00,
2013-09-28 14:48:00,71.4,30.6,30.21,NE,45,6.5,10.5,22,30.88,,---,0.00,VWS V14.00,2013-09-28 18:48:00,
2013-09-28 14:50:00,71.4,30.6,30.21,NE,45,6.3,6.3,22,30.88,,---,0.00,VWS V14.00,2013-09-28 18:50:00,
2013-09-28 14:52:00,71.2,30.5,30.21,NE,45,10.1,10.7,22,30.88,,---,0.00,VWS V14.00,2013-09-28 18:52:00,
2013-09-28 14:55:00,71.2,30.5,30.21,NE,45,7.6,11.0,22,30.88,,---,0.00,VWS V14.00,2013-09-28 18:55:00,
2013-09-28 14:58:00,71.2,30.5,30.21,NE,45,6.0,10.3,22,30.88,,---,0.00,VWS V14.00,2013-09-28 18:58:00,
2013-09-28 15:00:00,71.2,30.5,30.21,ENE,68,7.8,10.1,22,30.88,,---,0.00,VWS V14.00,2013-09-28 19:00:00,
2013-09-28 15:05:00,71.4,30.6,30.21,East,90,5.4,7.8,22,30.88,,---,0.00,VWS V14.00,2013-09-28 19:05:00,
2013-09-28 15:06:00,71.4,30.6,30.21,ESE,112,8.5,11.2,22,30.88,,---,0.00,VWS V14.00,2013-09-28 19:06:00,
2013-09-28 15:07:00,71.4,30.6,30.21,ESE,112,6.0,10.3,22,30.88,,---,0.00,VWS V14.00,2013-09-28 19:07:00,
2013-09-28 15:08:00,71.1,30.3,30.21,NE,45,5.8,7.8,22,30.88,,---,0.00,VWS V14.00,2013-09-28 19:08:00,
2013-09-28 15:13:00,71.2,30.5,30.21,ENE,68,5.4,6.5,22,30.88,,---,0.00,VWS V14.00,2013-09-28 19:13:00,
2013-09-28 15:14:00,71.1,30.3,30.21,East,90,6.5,8.1,22,30.88,,---,0.00,VWS V14.00,2013-09-28 19:14:00,
2013-09-28 15:15:00,71.2,30.5,30.21,NE,45,7.8,7.8,22,30.88,,---,0.00,VWS V14.00,2013-09-28 19:15:00,
2013-09-28 15:17:00,71.4,30.6,30.24,NE,45,6.5,6.5,22,30.88,,---,0.00,VWS V14.00,2013-09-28 19:17:00,
2013-09-28 15:19:00,71.4,30.6,30.24,East,90,6.3,8.1,22,30.88,,---,0.00,VWS V14.00,2013-09-28 19:19:00,
2013-09-28 15:20:00,71.4,30.6,30.24,NE,45,7.8,7.8,22,30.88,,---,0.00,VWS V14.00,2013-09-28 19:20:00,
2013-09-28 15:25:00,71.4,30.6,30.24,ENE,68,7.4,7.4,22,30.88,,---,0.00,VWS V14.00,2013-09-28 19:25:00,
2013-09-28 15:26:00,71.4,30.6,30.24,NE,45,8.5,8.5,22,30.88,,---,0.00,VWS V14.00,2013-09-28 19:26:00,
2013-09-28 15:27:00,71.2,30.5,30.24,NE,45,5.4,12.1,22,30.88,,---,0.00,VWS V14.00,2013-09-28 19:27:00,
2013-09-28 15:32:00,71.2,30.5,30.24,NNE,22,5.6,5.6,22,30.88,,---,0.00,VWS V14.00,2013-09-28 19:32:00,
2013-09-28 15:34:00,71.4,30.6,30.24,NE,45,5.8,9.6,22,30.88,,---,0.00,VWS V14.00,2013-09-28 19:34:00,
2013-09-28 15:35:00,71.4,30.6,30.24,NNE,22,5.4,5.8,22,30.88,,---,0.00,VWS V14.00,2013-09-28 19:35:00,
2013-09-28 15:37:00,71.6,30.8,30.24,ENE,68,6.3,6.3,22,30.88,,---,0.00,VWS V14.00,2013-09-28 19:37:00,
2013-09-28 15:41:00,71.4,30.6,30.24,NNE,22,5.8,5.8,22,30.88,,---,0.00,VWS V14.00,2013-09-28 19:41:00,
2013-09-28 15:42:00,71.2,30.5,30.24,ENE,68,11.2,11.2,22,30.88,,---,0.00,VWS V14.00,2013-09-28 19:42:00,
2013-09-28 15:43:00,71.1,30.3,30.24,NE,45,7.6,12.1,22,30.88,,---,0.00,VWS V14.00,2013-09-28 19:43:00,
2013-09-28 15:45:00,71.1,30.3,30.24,NE,45,4.3,6.3,22,30.88,,---,0.00,VWS V14.00,2013-09-28 19:45:00,
2013-09-28 15:47:00,71.1,30.3,30.21,ESE,112,3.1,6.9,22,30.88,,---,0.00,VWS V14.00,2013-09-28 19:47:00,
2013-09-28 15:49:00,71.1,30.3,30.21,SE,135,5.8,6.7,22,30.88,,---,0.00,VWS V14.00,2013-09-28 19:49:00,
2013-09-28 15:53:00,71.1,30.3,30.21,NE,45,7.4,8.1,22,30.88,,---,0.00,VWS V14.00,2013-09-28 19:53:00,
2013-09-28 15:54:00,71.1,30.3,30.21,NNE,22,6.0,7.4,22,30.88,,---,0.00,VWS V14.00,2013-09-28 19:54:00,
2013-09-28 15:56:00,70.9,30.2,30.21,ENE,68,6.3,8.7,22,30.88,,---,0.00,VWS V14.00,2013-09-28 19:56:00,
2013-09-28 15:57:00,70.9,30.2,30.21,ENE,68,7.4,8.5,22,30.88,,---,0.00,VWS V14.00,2013-09-28 19:57:00,
2013-09-28 16:00:00,70.9,30.2,30.21,NE,45,9.6,9.6,22,30.88,,---,0.00,VWS V14.00,2013-09-28 20:00:00,
2013-09-28 16:04:00,70.7,30.0,30.21,ENE,68,5.6,11.0,22,30.88,,---,0.00,VWS V14.00,2013-09-28 20:04:00,
2013-09-28 16:06:00,70.5,29.9,30.21,ENE,68,8.7,8.7,22,30.88,,---,0.00,VWS V14.00,2013-09-28 20:06:00,
2013-09-28 16:07:00,70.7,30.0,30.21,NE,45,5.6,9.0,22,30.88,,---,0.00,VWS V14.00,2013-09-28 20:07:00,
2013-09-28 16:09:00,70.5,29.9,30.21,NE,45,6.0,8.7,22,30.88,,---,0.00,VWS V14.00,2013-09-28 20:09:00,
2013-09-28 16:11:00,70.3,29.7,30.21,ENE,68,5.6,9.0,22,30.88,,---,0.00,VWS V14.00,2013-09-28 20:11:00,
2013-09-28 16:14:00,70.3,29.7,30.21,East,90,4.3,7.6,22,30.88,,---,0.00,VWS V14.00,2013-09-28 20:14:00,
2013-09-28 16:16:00,70.3,29.7,30.21,NNE,22,4.3,5.8,22,30.88,,---,0.00,VWS V14.00,2013-09-28 20:16:00,
2013-09-28 16:18:00,70.3,29.7,30.21,ENE,68,7.4,7.6,22,30.88,,---,0.00,VWS V14.00,2013-09-28 20:18:00,
2013-09-28 16:23:00,70.0,29.4,30.21,NE,45,6.5,7.8,22,30.88,,---,0.00,VWS V14.00,2013-09-28 20:23:00,
2013-09-28 16:24:00,70.2,29.6,30.21,East,90,6.3,6.5,22,30.88,,---,0.00,VWS V14.00,2013-09-28 20:24:00,
2013-09-28 16:27:00,70.0,29.4,30.21,ENE,68,6.0,6.3,22,30.88,,---,0.00,VWS V14.00,2013-09-28 20:27:00,
2013-09-28 16:29:00,70.2,29.6,30.21,ENE,68,6.5,6.5,22,30.88,,---,0.00,VWS V14.00,2013-09-28 20:29:00,
2013-09-28 16:30:00,70.2,29.6,30.21,ENE,68,9.6,9.6,22,30.88,,---,0.00,VWS V14.00,2013-09-28 20:30:00,
2013-09-28 16:32:00,70.3,29.7,30.21,NE,45,2.9,5.4,22,30.88,,---,0.00,VWS V14.00,2013-09-28 20:32:00,
2013-09-28 16:34:00,70.3,29.7,30.21,ENE,68,6.5,8.1,22,30.88,,---,0.00,VWS V14.00,2013-09-28 20:34:00,
2013-09-28 16:39:00,70.0,29.4,30.21,ENE,68,3.8,4.9,22,30.88,,---,0.00,VWS V14.00,2013-09-28 20:39:00,
2013-09-28 16:40:00,70.2,29.6,30.21,ESE,112,4.0,5.8,22,30.88,,---,0.00,VWS V14.00,2013-09-28 20:40:00,
2013-09-28 16:42:00,70.0,29.4,30.21,SE,135,5.8,6.3,22,30.88,,---,0.00,VWS V14.00,2013-09-28 20:42:00,
2013-09-28 16:44:00,70.0,29.4,30.21,ESE,112,8.5,8.5,22,30.88,,---,0.00,VWS V14.00,2013-09-28 20:44:00,
2013-09-28 16:45:00,69.8,29.3,30.21,ESE,112,8.5,10.3,22,30.88,,---,0.00,VWS V14.00,2013-09-28 20:45:00,
2013-09-28 16:48:00,69.6,29.1,30.18,ESE,112,6.3,7.6,22,30.88,,---,0.00,VWS V14.00,2013-09-28 20:48:00,
2013-09-28 16:49:00,69.6,29.1,30.18,NNE,22,8.1,8.1,22,30.88,,---,0.00,VWS V14.00,2013-09-28 20:49:00,
2013-09-28 16:52:00,69.6,29.1,30.18,ESE,112,5.6,5.6,22,30.88,,---,0.00,VWS V14.00,2013-09-28 20:52:00,
2013-09-28 16:56:00,69.6,29.1,30.18,ESE,112,5.4,6.3,22,30.88,,---,0.00,VWS V14.00,2013-09-28 20:56:00,
2013-09-28 17:00:00,69.6,29.1,30.18,ESE,112,5.6,7.4,22,30.88,,---,0.00,VWS V14.00,2013-09-28 21:00:00,
2013-09-28 17:01:00,69.6,29.1,30.18,ENE,68,7.2,7.2,22,30.88,,---,0.00,VWS V14.00,2013-09-28 21:01:00,
2013-09-28 17:02:00,69.6,29.1,30.21,ENE,68,5.4,7.2,22,30.88,,---,0.00,VWS V14.00,2013-09-28 21:02:00,
2013-09-28 17:06:00,69.4,29.0,30.21,SE,135,4.0,6.0,22,30.88,,---,0.00,VWS V14.00,2013-09-28 21:06:00,
2013-09-28 17:07:00,69.4,29.0,30.21,East,90,3.8,6.5,22,30.88,,---,0.00,VWS V14.00,2013-09-28 21:07:00,
2013-09-28 17:09:00,69.4,29.0,30.21,ESE,112,3.1,6.0,22,30.88,,---,0.00,VWS V14.00,2013-09-28 21:09:00,
2013-09-28 17:12:00,69.3,28.8,30.21,ENE,68,3.6,8.7,22,30.88,,---,0.00,VWS V14.00,2013-09-28 21:12:00,
2013-09-28 17:14:00,69.3,28.8,30.21,SSE,158,3.1,6.0,22,30.88,,---,0.00,VWS V14.00,2013-09-28 21:14:00,
2013-09-28 17:15:00,69.3,28.8,30.21,East,90,5.8,5.8,22,30.88,,---,0.00,VWS V14.00,2013-09-28 21:15:00,
2013-09-28 17:17:00,69.3,28.8,30.21,SE,135,3.6,5.8,22,30.88,,---,0.00,VWS V14.00,2013-09-28 21:17:00,
2013-09-28 17:20:00,69.1,28.7,30.21,NE,45,7.6,7.6,22,30.88,,---,0.00,VWS V14.00,2013-09-28 21:20:00,
2013-09-28 17:22:00,69.1,28.7,30.21,East,90,4.9,4.9,22,30.88,,---,0.00,VWS V14.00,2013-09-28 21:22:00,
2013-09-28 17:24:00,68.9,28.5,30.21,ESE,112,9.4,9.4,22,30.88,,---,0.00,VWS V14.00,2013-09-28 21:24:00,
2013-09-28 17:25:00,68.9,28.5,30.21,NE,45,4.0,9.8,22,30.88,,---,0.00,VWS V14.00,2013-09-28 21:25:00,
2013-09-28 17:28:00,68.9,28.5,30.21,ENE,68,4.0,5.4,22,30.88,,---,0.00,VWS V14.00,2013-09-28 21:28:00,
2013-09-28 17:31:00,68.7,28.4,30.21,East,90,5.6,6.0,22,30.88,,---,0.00,VWS V14.00,2013-09-28 21:31:00,
2013-09-28 17:32:00,68.7,28.4,30.21,ESE,112,3.1,5.6,22,30.88,,---,0.00,VWS V14.00,2013-09-28 21:32:00,
2013-09-28 17:36:00,68.5,28.2,30.21,SSE,158,5.6,6.5,22,30.88,,---,0.00,VWS V14.00,2013-09-28 21:36:00,
2013-09-28 17:38:00,68.5,28.2,30.21,ENE,68,6.5,7.8,22,30.88,,---,0.00,VWS V14.00,2013-09-28 21:38:00,
2013-09-28 17:39:00,68.5,28.2,30.21,SE,135,4.0,6.5,22,30.88,,---,0.00,VWS V14.00,2013-09-28 21:39:00,
2013-09-28 17:42:00,68.5,28.2,30.21,SE,135,7.2,7.2,22,30.88,,---,0.00,VWS V14.00,2013-09-28 21:42:00,
2013-09-28 17:43:00,68.4,28.1,30.21,ENE,68,4.3,7.8,22,30.88,,---,0.00,VWS V14.00,2013-09-28 21:43:00,
2013-09-28 17:46:00,68.4,28.1,30.21,ESE,112,6.5,6.5,22,30.88,,---,0.00,VWS V14.00,2013-09-28 21:46:00,
2013-09-28 17:47:00,68.2,27.9,30.21,SE,135,6.0,7.6,22,30.88,,---,0.00,VWS V14.00,2013-09-28 21:47:00,
2013-09-28 17:49:00,68.0,27.8,30.21,SE,135,4.5,4.9,22,30.88,,---,0.00,VWS V14.00,2013-09-28 21:49:00,
2013-09-28 17:52:00,67.8,28.7,30.21,ESE,112,2.9,3.1,23,30.88,,---,0.00,VWS V14.00,2013-09-28 21:52:00,
2013-09-28 17:54:00,67.8,28.7,30.21,NE,45,4.3,4.3,23,30.88,,---,0.00,VWS V14.00,2013-09-28 21:54:00,
2013-09-28 17:57:00,67.5,28.4,30.21,ESE,112,9.8,9.8,23,30.88,,---,0.00,VWS V14.00,2013-09-28 21:57:00,
2013-09-28 17:59:00,67.5,28.4,30.21,ESE,112,3.8,6.5,23,30.88,,---,0.00,VWS V14.00,2013-09-28 21:59:00,
2013-09-28 18:00:00,67.5,28.4,30.21,SE,135,7.8,8.1,23,30.88,,---,0.00,VWS V14.00,2013-09-28 22:00:00,
2013-09-28 18:03:00,67.1,28.1,30.21,SSE,158,6.0,6.3,23,30.88,,---,0.00,VWS V14.00,2013-09-28 22:03:00,
2013-09-28 18:04:00,67.1,28.1,30.21,ESE,112,5.4,7.6,23,30.88,,---,0.00,VWS V14.00,2013-09-28 22:04:00,
2013-09-28 18:06:00,67.1,28.1,30.21,ESE,112,4.9,9.2,23,30.88,,---,0.00,VWS V14.00,2013-09-28 22:06:00,
2013-09-28 18:07:00,67.1,28.1,30.21,ESE,112,5.6,5.6,23,30.88,,---,0.00,VWS V14.00,2013-09-28 22:07:00,
2013-09-28 18:10:00,67.1,28.1,30.21,SE,135,4.3,4.9,23,30.88,,---,0.00,VWS V14.00,2013-09-28 22:10:00,
2013-09-28 18:12:00,66.9,29.0,30.21,ENE,68,4.9,6.3,24,30.88,,---,0.00,VWS V14.00,2013-09-28 22:12:00,
2013-09-28 18:13:00,66.9,29.0,30.21,East,90,6.0,6.3,24,30.88,,---,0.00,VWS V14.00,2013-09-28 22:13:00,
2013-09-28 18:15:00,66.9,29.0,30.21,ESE,112,4.9,5.6,24,30.88,,---,0.00,VWS V14.00,2013-09-28 22:15:00,
2013-09-28 18:19:00,66.7,28.8,30.21,East,90,3.6,5.8,24,30.88,,---,0.00,VWS V14.00,2013-09-28 22:19:00,
2013-09-28 18:20:00,66.6,28.7,30.21,ESE,112,4.3,6.3,24,30.88,,---,0.00,VWS V14.00,2013-09-28 22:20:00,
2013-09-28 18:23:00,66.6,28.7,30.21,ESE,112,6.3,6.3,24,30.88,,---,0.00,VWS V14.00,2013-09-28 22:23:00,
2013-09-28 18:25:00,66.4,28.5,30.21,South,180,2.9,5.8,24,30.88,,---,0.00,VWS V14.00,2013-09-28 22:25:00,
2013-09-28 18:26:00,66.4,28.5,30.21,SE,135,2.9,3.4,24,30.88,,---,0.00,VWS V14.00,2013-09-28 22:26:00,
2013-09-28 18:29:00,66.4,28.5,30.21,NNE,22,2.5,3.8,24,30.88,,---,0.00,VWS V14.00,2013-09-28 22:29:00,
2013-09-28 18:31:00,66.2,28.4,30.21,ESE,112,5.6,5.6,24,30.88,,---,0.00,VWS V14.00,2013-09-28 22:31:00,
2013-09-28 18:32:00,66.2,28.4,30.21,SE,135,3.4,5.8,24,30.88,,---,0.00,VWS V14.00,2013-09-28 22:32:00,
2013-09-28 18:34:00,66.2,28.4,30.21,ESE,112,2.9,4.3,24,30.88,,---,0.00,VWS V14.00,2013-09-28 22:34:00,
2013-09-28 18:39:00,66.0,28.2,30.21,East,90,5.6,5.6,24,30.88,,---,0.00,VWS V14.00,2013-09-28 22:39:00,
2013-09-28 18:41:00,66.0,29.2,30.21,ESE,112,3.1,4.3,25,30.88,,---,0.00,VWS V14.00,2013-09-28 22:41:00,
2013-09-28 18:42:00,65.8,29.1,30.21,ESE,112,5.4,5.4,25,30.88,,---,0.00,VWS V14.00,2013-09-28 22:42:00,
2013-09-28 18:43:00,65.8,29.1,30.21,ESE,112,7.2,7.4,25,30.88,,---,0.00,VWS V14.00,2013-09-28 22:43:00,
2013-09-28 18:47:00,65.8,29.1,30.21,ESE,112,3.6,7.4,25,30.88,,---,0.00,VWS V14.00,2013-09-28 22:47:00,
2013-09-28 18:48:00,65.8,29.1,30.21,East,90,3.1,3.6,25,30.88,,---,0.00,VWS V14.00,2013-09-28 22:48:00,
2013-09-28 18:49:00,65.8,29.1,30.21,ESE,112,4.3,4.3,25,30.88,,---,0.00,VWS V14.00,2013-09-28 22:49:00,
2013-09-28 18:50:00,65.7,28.9,30.21,ESE,112,3.4,6.0,25,30.88,,---,0.00,VWS V14.00,2013-09-28 22:50:00,
2013-09-28 18:55:00,65.7,28.9,30.21,East,90,3.4,7.2,25,30.88,,---,0.00,VWS V14.00,2013-09-28 22:55:00,
2013-09-28 18:57:00,65.7,28.9,30.21,ESE,112,4.3,6.0,25,30.88,,---,0.00,VWS V14.00,2013-09-28 22:57:00,
2013-09-28 18:58:00,65.7,28.9,30.21,ESE,112,4.3,6.3,25,30.88,,---,0.00,VWS V14.00,2013-09-28 22:58:00,
2013-09-28 19:02:00,65.7,28.9,30.21,ESE,112,5.6,8.5,25,30.88,,---,0.00,VWS V14.00,2013-09-28 23:02:00,
2013-09-28 19:06:00,65.7,28.9,30.21,East,90,4.0,6.9,25,30.88,,---,0.00,VWS V14.00,2013-09-28 23:06:00,
2013-09-28 19:07:00,65.7,28.9,30.21,SE,135,7.4,10.1,25,30.88,,---,0.00,VWS V14.00,2013-09-28 23:07:00,
2013-09-28 19:09:00,65.7,28.9,30.21,ESE,112,4.9,7.2,25,30.88,,---,0.00,VWS V14.00,2013-09-28 23:09:00,
2013-09-28 19:11:00,65.7,28.9,30.21,East,90,5.4,7.8,25,30.88,,---,0.00,VWS V14.00,2013-09-28 23:11:00,
2013-09-28 19:12:00,65.7,28.9,30.21,ESE,112,4.0,5.4,25,30.88,,---,0.00,VWS V14.00,2013-09-28 23:12:00,
2013-09-28 19:17:00,65.7,28.9,30.21,NE,45,3.1,4.9,25,30.88,,---,0.00,VWS V14.00,2013-09-28 23:17:00,
2013-09-28 19:18:00,65.7,28.9,30.21,ESE,112,5.4,5.4,25,30.88,,---,0.00,VWS V14.00,2013-09-28 23:18:00,
2013-09-28 19:19:00,65.5,28.8,30.21,ENE,68,2.9,5.4,25,30.88,,---,0.00,VWS V14.00,2013-09-28 23:19:00,
2013-09-28 19:22:00,65.5,28.8,30.21,ESE,112,4.9,4.9,25,30.88,,---,0.00,VWS V14.00,2013-09-28 23:22:00,
2013-09-28 19:23:00,65.5,28.8,30.21,ESE,112,3.8,6.3,25,30.88,,---,0.00,VWS V14.00,2013-09-28 23:23:00,
2013-09-28 19:24:00,65.5,28.8,30.21,ESE,112,6.5,6.5,25,30.88,,---,0.00,VWS V14.00,2013-09-28 23:24:00,
2013-09-28 19:27:00,65.5,28.8,30.21,ESE,112,4.0,5.4,25,30.88,,---,0.00,VWS V14.00,2013-09-28 23:27:00,
2013-09-28 19:28:00,65.5,28.8,30.21,East,90,3.4,5.6,25,30.88,,---,0.00,VWS V14.00,2013-09-28 23:28:00,
2013-09-28 19:32:00,65.5,28.8,30.21,SE,135,3.4,4.3,25,30.88,,---,0.00,VWS V14.00,2013-09-28 23:32:00,
2013-09-28 19:35:00,65.3,28.6,30.21,East,90,3.4,4.0,25,30.88,,---,0.00,VWS V14.00,2013-09-28 23:35:00,
2013-09-28 19:38:00,65.3,28.6,30.21,SE,135,2.5,4.3,25,30.88,,---,0.00,VWS V14.00,2013-09-28 23:38:00,
2013-09-28 19:41:00,65.3,28.6,30.21,SSE,158,2.0,3.8,25,30.88,,---,0.00,VWS V14.00,2013-09-28 23:41:00,
2013-09-28 19:42:00,65.3,28.6,30.21,ESE,112,1.3,4.3,25,30.88,,---,0.00,VWS V14.00,2013-09-28 23:42:00,
2013-09-28 19:43:00,65.3,29.6,30.21,ESE,112,4.3,4.3,26,30.88,,---,0.00,VWS V14.00,2013-09-28 23:43:00,
2013-09-28 19:46:00,65.3,29.6,30.21,SE,135,5.6,5.6,26,30.88,,---,0.00,VWS V14.00,2013-09-28 23:46:00,
2013-09-28 19:47:00,65.3,28.6,30.18,ESE,112,4.0,5.6,25,30.88,,---,0.00,VWS V14.00,2013-09-28 23:47:00,
2013-09-28 19:48:00,65.3,28.6,30.18,ESE,112,4.9,4.9,25,30.88,,---,0.00,VWS V14.00,2013-09-28 23:48:00,
2013-09-28 19:49:00,65.3,28.6,30.18,East,90,8.1,8.1,25,30.88,,---,0.00,VWS V14.00,2013-09-28 23:49:00,
2013-09-28 19:53:00,65.3,28.6,30.18,ESE,112,5.4,5.8,25,30.88,,---,0.00,VWS V14.00,2013-09-28 23:53:00,
2013-09-28 19:56:00,65.5,28.8,30.18,East,90,4.5,6.0,25,30.88,,---,0.00,VWS V14.00,2013-09-28 23:56:00,
2013-09-28 19:58:00,65.3,28.6,30.18,ESE,112,3.4,4.0,25,30.88,,---,0.00,VWS V14.00,2013-09-28 23:58:00,
2013-09-28 20:00:00,65.3,28.6,30.18,ESE,112,3.6,4.7,25,30.88,,---,0.00,VWS V14.00,2013-09-29 00:00:00,
2013-09-28 20:01:00,65.3,28.6,30.18,ESE,112,5.4,5.4,25,30.88,,---,0.00,VWS V14.00,2013-09-29 00:01:00,
2013-09-28 20:02:00,65.3,28.6,30.21,ENE,68,4.9,5.8,25,30.88,,---,0.00,VWS V14.00,2013-09-29 00:02:00,
2013-09-28 20:05:00,65.3,29.6,30.21,ESE,112,4.0,4.0,26,30.88,,---,0.00,VWS V14.00,2013-09-29 00:05:00,
2013-09-28 20:07:00,65.3,29.6,30.21,East,90,3.6,5.6,26,30.88,,---,0.00,VWS V14.00,2013-09-29 00:07:00,
2013-09-28 20:09:00,65.3,29.6,30.21,SE,135,2.5,4.3,26,30.88,,---,0.00,VWS V14.00,2013-09-29 00:09:00,
2013-09-28 20:13:00,65.1,29.4,30.21,ESE,112,5.4,5.4,26,30.88,,---,0.00,VWS V14.00,2013-09-29 00:13:00,
2013-09-28 20:15:00,65.1,29.4,30.21,ESE,112,4.7,5.6,26,30.88,,---,0.00,VWS V14.00,2013-09-29 00:15:00,
2013-09-28 20:18:00,65.1,29.4,30.18,SE,135,3.1,4.3,26,30.88,,---,0.00,VWS V14.00,2013-09-29 00:18:00,
2013-09-28 20:20:00,65.1,29.4,30.18,ESE,112,3.8,4.9,26,30.88,,---,0.00,VWS V14.00,2013-09-29 00:20:00,
2013-09-28 20:21:00,65.1,29.4,30.18,ESE,112,4.9,4.9,26,30.88,,---,0.00,VWS V14.00,2013-09-29 00:21:00,
2013-09-28 20:26:00,65.1,29.4,30.18,ESE,112,3.6,5.6,26,30.88,,---,0.00,VWS V14.00,2013-09-29 00:26:00,
2013-09-28 20:27:00,65.1,29.4,30.18,ESE,112,5.4,5.6,26,30.88,,---,0.00,VWS V14.00,2013-09-29 00:27:00,
2013-09-28 20:28:00,65.1,29.4,30.18,SE,135,2.0,5.4,26,30.88,,---,0.00,VWS V14.00,2013-09-29 00:28:00,
2013-09-28 20:29:00,65.1,29.4,30.18,ENE,68,4.9,4.9,26,30.88,,---,0.00,VWS V14.00,2013-09-29 00:29:00,
2013-09-28 20:32:00,64.9,29.3,30.21,SE,135,2.5,3.8,26,30.88,,---,0.00,VWS V14.00,2013-09-29 00:32:00,
2013-09-28 20:33:00,64.9,29.3,30.21,SE,135,3.8,3.8,26,30.88,,---,0.00,VWS V14.00,2013-09-29 00:33:00,
2013-09-28 20:34:00,64.9,29.3,30.21,SE,135,2.9,3.8,26,30.88,,---,0.00,VWS V14.00,2013-09-29 00:34:00,
2013-09-28 20:36:00,64.9,29.3,30.21,ESE,112,3.8,5.4,26,30.88,,---,0.00,VWS V14.00,2013-09-29 00:36:00,
2013-09-28 20:39:00,64.8,29.1,30.21,East,90,3.6,3.6,26,30.88,,---,0.00,VWS V14.00,2013-09-29 00:39:00,
2013-09-28 20:41:00,64.8,29.1,30.21,SE,135,2.7,3.6,26,30.88,,---,0.00,VWS V14.00,2013-09-29 00:41:00,
2013-09-28 20:44:00,64.8,29.1,30.21,ESE,112,2.7,4.3,26,30.88,,---,0.00,VWS V14.00,2013-09-29 00:44:00,
2013-09-28 20:45:00,64.8,29.1,30.21,ESE,112,2.0,3.6,26,30.88,,---,0.00,VWS V14.00,2013-09-29 00:45:00,
2013-09-28 20:50:00,64.6,29.0,30.24,ESE,112,1.6,1.6,26,30.88,,---,0.00,VWS V14.00,2013-09-29 00:50:00,
2013-09-28 20:51:00,64.6,29.0,30.24,ESE,112,0.0,2.2,26,30.88,,---,0.00,VWS V14.00,2013-09-29 00:51:00,
2013-09-28 20:52:00,64.4,28.8,30.24,ESE,112,1.6,1.6,26,30.88,,---,0.00,VWS V14.00,2013-09-29 00:52:00,
2013-09-28 20:55:00,64.6,29.0,30.24,ESE,112,1.6,3.8,26,30.88,,---,0.00,VWS V14.00,2013-09-29 00:55:00,
2013-09-28 20:56:00,64.6,29.0,30.24,SE,135,1.3,2.9,26,30.88,,---,0.00,VWS V14.00,2013-09-29 00:56:00,
2013-09-28 21:01:00,64.4,29.7,30.24,SE,135,0.0,0.0,27,30.88,,---,0.00,VWS V14.00,2013-09-29 01:01:00,
2013-09-28 21:02:00,64.4,29.7,30.21,ESE,112,0.0,0.0,27,30.88,,---,0.00,VWS V14.00,2013-09-29 01:02:00,
2013-09-28 21:03:00,64.4,29.7,30.21,ESE,112,0.0,0.0,27,30.88,,---,0.00,VWS V14.00,2013-09-29 01:03:00,
2013-09-28 21:08:00,64.2,29.6,30.21,East,90,0.0,2.9,27,30.88,,---,0.00,VWS V14.00,2013-09-29 01:08:00,
2013-09-28 21:09:00,64.2,29.6,30.21,ESE,112,2.0,2.9,27,30.88,,---,0.00,VWS V14.00,2013-09-29 01:09:00,
2013-09-28 21:10:00,64.2,29.6,30.21,ESE,112,2.0,2.5,27,30.88,,---,0.00,VWS V14.00,2013-09-29 01:10:00,
2013-09-28 21:14:00,64.2,29.6,30.21,ESE,112,0.0,0.0,27,30.88,,---,0.00,VWS V14.00,2013-09-29 01:14:00,
2013-09-28 21:15:00,64.2,29.6,30.21,ESE,112,0.0,0.0,27,30.88,,---,0.00,VWS V14.00,2013-09-29 01:15:00,
2013-09-28 21:18:00,64.2,29.6,30.18,ESE,112,3.4,3.4,27,30.88,,---,0.00,VWS V14.00,2013-09-29 01:18:00,
2013-09-28 21:21:00,64.2,29.6,30.18,ESE,112,0.0,0.0,27,30.88,,---,0.00,VWS V14.00,2013-09-29 01:21:00,
2013-09-28 21:24:00,64.2,29.6,30.18,ESE,112,0.0,0.0,27,30.88,,---,0.00,VWS V14.00,2013-09-29 01:24:00,
2013-09-28 21:30:00,64.0,30.3,30.18,ESE,112,2.7,3.4,28,30.88,,---,0.00,VWS V14.00,2013-09-29 01:30:00,
2013-09-28 21:31:00,64.0,30.3,30.18,East,90,2.0,2.9,28,30.88,,---,0.00,VWS V14.00,2013-09-29 01:31:00,
2013-09-28 21:36:00,63.9,30.1,30.21,ESE,112,2.0,2.5,28,30.88,,---,0.00,VWS V14.00,2013-09-29 01:36:00,
2013-09-28 21:38:00,63.9,30.1,30.21,ESE,112,0.0,1.3,28,30.88,,---,0.00,VWS V14.00,2013-09-29 01:38:00,
2013-09-28 21:41:00,63.9,30.1,30.21,ESE,112,0.0,1.3,28,30.88,,---,0.00,VWS V14.00,2013-09-29 01:41:00,
2013-09-28 21:43:00,63.9,30.1,30.21,ESE,112,0.0,2.0,28,30.88,,---,0.00,VWS V14.00,2013-09-29 01:43:00,
2013-09-28 21:44:00,63.7,30.0,30.21,ESE,112,0.0,0.0,28,30.88,,---,0.00,VWS V14.00,2013-09-29 01:44:00,
2013-09-28 21:49:00,63.7,30.0,30.18,ESE,112,0.9,0.9,28,30.88,,---,0.00,VWS V14.00,2013-09-29 01:49:00,
2013-09-28 21:50:00,63.7,30.0,30.18,SE,135,1.6,1.6,28,30.88,,---,0.00,VWS V14.00,2013-09-29 01:50:00,
2013-09-28 21:52:00,63.7,30.0,30.18,ESE,112,0.0,0.9,28,30.88,,---,0.00,VWS V14.00,2013-09-29 01:52:00,
2013-09-28 21:54:00,63.7,30.0,30.18,ESE,112,1.3,2.7,28,30.88,,---,0.00,VWS V14.00,2013-09-29 01:54:00,
2013-09-28 21:55:00,63.7,30.0,30.18,ESE,112,1.1,2.2,28,30.88,,---,0.00,VWS V14.00,2013-09-29 01:55:00,
2013-09-28 21:57:00,63.7,30.0,30.18,East,90,0.0,0.0,28,30.88,,---,0.00,VWS V14.00,2013-09-29 01:57:00,
2013-09-28 21:59:00,63.7,30.9,30.18,ESE,112,1.6,2.9,29,30.88,,---,0.00,VWS V14.00,2013-09-29 01:59:00,
2013-09-28 22:03:00,63.7,30.9,30.21,ESE,112,0.0,0.0,29,30.88,,---,0.00,VWS V14.00,2013-09-29 02:03:00,
2013-09-28 22:05:00,63.7,30.9,30.21,ESE,112,0.0,0.0,29,30.88,,---,0.00,VWS V14.00,2013-09-29 02:05:00,
2013-09-28 22:06:00,63.5,30.7,30.21,ESE,112,0.0,1.6,29,30.88,,---,0.00,VWS V14.00,2013-09-29 02:06:00,
2013-09-28 22:09:00,63.7,30.9,30.21,ESE,112,0.0,0.0,29,30.88,,---,0.00,VWS V14.00,2013-09-29 02:09:00,
2013-09-28 22:11:00,63.7,30.9,30.21,ESE,112,0.0,0.0,29,30.88,,---,0.00,VWS V14.00,2013-09-29 02:11:00,
2013-09-28 22:12:00,63.7,30.9,30.21,ESE,112,0.0,0.0,29,30.88,,---,0.00,VWS V14.00,2013-09-29 02:12:00,
2013-09-28 22:16:00,63.5,30.7,30.21,ESE,112,0.0,0.0,29,30.88,,---,0.00,VWS V14.00,2013-09-29 02:16:00,
2013-09-28 22:17:00,63.5,31.5,30.21,ESE,112,0.0,0.0,30,30.88,,---,0.00,VWS V14.00,2013-09-29 02:17:00,
2013-09-28 22:21:00,63.5,31.5,30.21,ESE,112,0.0,0.0,30,30.88,,---,0.00,VWS V14.00,2013-09-29 02:21:00,
2013-09-28 22:22:00,63.5,31.5,30.21,ESE,112,0.0,0.0,30,30.88,,---,0.00,VWS V14.00,2013-09-29 02:22:00,
2013-09-28 22:23:00,63.5,31.5,30.21,ESE,112,0.0,0.0,30,30.88,,---,0.00,VWS V14.00,2013-09-29 02:23:00,
2013-09-28 22:27:00,63.5,31.5,30.21,ESE,112,0.0,0.0,30,30.88,,---,0.00,VWS V14.00,2013-09-29 02:27:00,
2013-09-28 22:29:00,63.5,31.5,30.21,ESE,112,0.0,0.0,30,30.88,,---,0.00,VWS V14.00,2013-09-29 02:29:00,
2013-09-28 22:32:00,63.5,32.3,30.18,ENE,68,0.0,0.0,31,30.88,,---,0.00,VWS V14.00,2013-09-29 02:32:00,
2013-09-28 22:35:00,63.3,32.2,30.18,ESE,112,0.0,0.0,31,30.88,,---,0.00,VWS V14.00,2013-09-29 02:35:00,
2013-09-28 22:37:00,63.5,32.3,30.18,ESE,112,0.0,0.0,31,30.88,,---,0.00,VWS V14.00,2013-09-29 02:37:00,
2013-09-28 22:40:00,63.5,32.3,30.18,ESE,112,0.0,0.0,31,30.88,,---,0.00,VWS V14.00,2013-09-29 02:40:00,
2013-09-28 22:41:00,63.5,32.3,30.18,ESE,112,0.0,0.0,31,30.88,,---,0.00,VWS V14.00,2013-09-29 02:41:00,
2013-09-28 22:44:00,63.5,32.3,30.18,East,90,0.0,0.0,31,30.88,,---,0.00,VWS V14.00,2013-09-29 02:44:00,
2013-09-28 22:46:00,63.7,33.3,30.18,ESE,112,2.7,2.7,32,30.88,,---,0.00,VWS V14.00,2013-09-29 02:46:00,
2013-09-28 22:47:00,63.7,33.3,30.18,SE,135,2.9,2.9,32,30.88,,---,0.00,VWS V14.00,2013-09-29 02:47:00,
2013-09-28 22:51:00,63.7,32.5,30.21,ESE,112,0.0,0.0,31,30.88,,---,0.00,VWS V14.00,2013-09-29 02:51:00,
2013-09-28 22:52:00,63.5,32.3,30.21,ESE,112,0.0,0.0,31,30.88,,---,0.00,VWS V14.00,2013-09-29 02:52:00,
2013-09-28 22:55:00,63.7,33.3,30.21,ESE,112,0.0,0.0,32,30.88,,---,0.00,VWS V14.00,2013-09-29 02:55:00,
2013-09-28 22:57:00,63.7,33.3,30.21,East,90,0.0,0.0,32,30.88,,---,0.00,VWS V14.00,2013-09-29 02:57:00,
2013-09-28 22:58:00,63.7,34.1,30.21,ESE,112,0.0,0.0,33,30.88,,---,0.00,VWS V14.00,2013-09-29 02:58:00,
2013-09-28 23:00:00,63.7,33.3,30.21,East,90,0.0,0.0,32,30.88,,---,0.00,VWS V14.00,2013-09-29 03:00:00,
2013-09-28 23:05:00,63.9,33.5,30.18,ESE,112,1.6,2.5,32,30.88,,---,0.00,VWS V14.00,2013-09-29 03:05:00,
2013-09-28 23:06:00,63.9,33.5,30.18,East,90,0.0,1.6,32,30.88,,---,0.00,VWS V14.00,2013-09-29 03:06:00,
2013-09-28 23:08:00,63.9,33.5,30.18,ESE,112,3.8,3.8,32,30.88,,---,0.00,VWS V14.00,2013-09-29 03:08:00,
2013-09-28 23:11:00,64.0,34.4,30.18,ESE,112,0.0,4.0,33,30.88,,---,0.00,VWS V14.00,2013-09-29 03:11:00,
2013-09-28 23:12:00,64.0,33.6,30.18,East,90,0.9,2.0,32,30.88,,---,0.00,VWS V14.00,2013-09-29 03:12:00,
2013-09-28 23:15:00,64.0,33.6,30.18,ESE,112,2.5,2.9,32,30.88,,---,0.00,VWS V14.00,2013-09-29 03:15:00,
2013-09-28 23:18:00,64.0,33.6,30.21,East,90,3.4,3.4,32,30.88,,---,0.00,VWS V14.00,2013-09-29 03:18:00,
2013-09-28 23:22:00,64.0,33.6,30.21,ESE,112,3.4,3.6,32,30.88,,---,0.00,VWS V14.00,2013-09-29 03:22:00,
2013-09-28 23:23:00,64.2,34.5,30.21,ESE,112,3.8,3.8,33,30.88,,---,0.00,VWS V14.00,2013-09-29 03:23:00,
2013-09-28 23:25:00,64.2,33.8,30.21,ESE,112,0.0,3.6,32,30.88,,---,0.00,VWS V14.00,2013-09-29 03:25:00,
2013-09-28 23:30:00,64.2,33.8,30.21,ESE,112,0.0,0.0,32,30.88,,---,0.00,VWS V14.00,2013-09-29 03:30:00,
2013-09-28 23:33:00,64.2,33.8,30.21,East,90,0.0,0.0,32,30.88,,---,0.00,VWS V14.00,2013-09-29 03:33:00,
2013-09-28 23:35:00,64.2,33.8,30.21,East,90,2.5,2.9,32,30.88,,---,0.00,VWS V14.00,2013-09-29 03:35:00,
2013-09-28 23:40:00,64.0,33.6,30.21,ESE,112,0.0,2.0,32,30.88,,---,0.00,VWS V14.00,2013-09-29 03:40:00,
2013-09-28 23:46:00,64.0,33.6,30.21,ESE,112,1.6,3.1,32,30.88,,---,0.00,VWS V14.00,2013-09-29 03:46:00,
2013-09-28 23:51:00,63.9,33.5,30.18,ESE,112,0.0,2.7,32,30.88,,---,0.00,VWS V14.00,2013-09-29 03:51:00,
2013-09-28 23:52:00,63.9,33.5,30.18,ESE,112,1.3,2.7,32,30.88,,---,0.00,VWS V14.00,2013-09-29 03:52:00,
2013-09-28 23:57:00,63.9,34.2,30.18,East,90,2.2,2.2,33,30.88,,---,0.00,VWS V14.00,2013-09-29 03:57:00,
2013-09-28 23:58:00,63.9,34.2,30.18,ESE,112,1.6,2.2,33,30.88,,---,0.00,VWS V14.00,2013-09-29 03:58:00,